Forum Crazy Orc - Centre de statistiques

Statistiques générales

Total des membres:
965
Total des messages:
96 374
Total des sujets:
4 001
Total des catégories:
4
Membres en ligne:
38
Connexions simultanées:
808 - 21 janvier 2020 à 20:55:59
En ligne aujourd'hui:
42
Total des pages vues:
32 088 354
Moyenne des inscriptions par jour:
0,25
Moyenne des messages par jour:
25,06
Moyenne des sujets par jour:
1,11
Total des sections:
40
Dernier membre:
Veznan
Moyenne d'utilisateurs connectés par jour:
46,87
Ratio hommes/femmes:
7.1:1
Pages vues en moyenne par jour:
5 737,23

Top lanceurs de sujets

nunch
600
ManuDevil
287
Morithil
271
GroumpH
246
Scratchy
132
MAO
110
LeDupontesque
105
jules
99
snake
92
CCCP
85

Temps de connexion cumulé

Mandy
133j 19h 59m
GroumpH
112j 9h 9m
CCCP
85j 21h 48m
Nukeflow
73j 8h 19m
ManuDevil
67j 7h 55m
Felipe
61j 12h 19m
dao
56j 17h 56m
nunch
49j 46m
Rh
42j 23h 32m
Patate
41j 21h 1m

Historique du forum (basé sur l'heure interne du forum)

Résumé annuel Nouveaux sujets Nouveaux messages Nouveaux membres Connexions simultanées Pages vues
* 2022 102 602 53 91 1 834 621
Juin 2022 14 76 4 62 319 981
2022-06-01 0 0 0 55 10 341
2022-06-02 0 2 0 45 8 295
2022-06-03 0 4 0 46 10 976
2022-06-04 0 5 1 46 7 086
2022-06-05 2 5 0 44 11 765
2022-06-06 2 4 0 46 12 530
2022-06-07 0 5 0 53 7 853
2022-06-08 1 2 0 54 12 848
2022-06-09 0 1 1 49 12 757
2022-06-10 0 1 0 57 14 855
2022-06-11 0 1 0 52 13 230
2022-06-12 0 0 0 49 10 232
2022-06-13 2 5 0 52 11 255
2022-06-14 0 3 0 62 9 963
2022-06-15 0 2 1 50 10 794
2022-06-16 0 1 0 48 11 647
2022-06-17 0 1 0 58 10 367
2022-06-18 0 1 0 53 9 995
2022-06-19 0 0 0 45 7 787
2022-06-20 0 4 0 42 6 688
2022-06-21 0 0 0 48 12 592
2022-06-22 0 0 0 40 12 805
2022-06-23 0 1 0 35 8 798
2022-06-24 0 1 0 52 22 323
2022-06-25 0 4 0 44 8 725
2022-06-26 0 2 0 43 12 350
2022-06-27 7 13 1 50 11 399
2022-06-28 0 7 0 51 11 591
2022-06-29 0 1 0 42 8 134
Mai 2022 16 118 8 91 339 244
Avril 2022 18 133 12 61 254 691
Mars 2022 15 123 8 65 281 935
2022-03-01 0 3 0 48 8 993
2022-03-02 1 8 1 45 10 064
2022-03-03 1 2 1 50 8 853
2022-03-04 0 4 0 44 7 834
2022-03-05 0 2 0 41 7 119
2022-03-06 0 0 0 37 10 411
2022-03-07 0 3 0 54 12 871
2022-03-08 0 9 0 36 8 020
2022-03-09 0 4 0 33 8 530
2022-03-10 2 5 0 44 12 186
2022-03-11 0 3 0 42 15 489
2022-03-12 0 6 0 38 11 948
2022-03-13 3 3 1 37 8 518
2022-03-14 0 10 0 36 3 827
2022-03-15 1 7 0 41 5 401
2022-03-16 0 2 0 39 5 518
2022-03-17 0 1 0 39 6 210
2022-03-18 0 3 2 41 8 871
2022-03-19 3 10 2 40 8 261
2022-03-20 0 2 0 41 7 879
2022-03-21 0 1 0 39 7 223
2022-03-22 0 2 0 39 5 856
2022-03-23 1 6 0 63 8 416
2022-03-24 0 3 0 43 8 308
2022-03-25 2 8 0 55 5 010
2022-03-26 0 6 0 43 11 353
2022-03-27 0 1 0 48 12 519
2022-03-28 0 1 1 41 14 845
2022-03-29 0 3 0 65 10 578
2022-03-30 0 2 0 54 8 689
2022-03-31 1 3 0 55 12 335
Février 2022 17 84 9 58 314 588
Janvier 2022 22 68 12 70 324 182
* 2021 129 756 53 338 4 376 522
Décembre 2021 8 37 0 129 661 064
Novembre 2021 13 99 4 153 262 314
2021-11-01 0 1 0 104 6 791
2021-11-02 1 4 0 86 7 303
2021-11-03 3 9 1 90 4 912
2021-11-04 1 2 0 113 8 815
2021-11-05 1 12 1 82 8 224
2021-11-06 0 6 0 79 7 367
2021-11-07 0 6 0 70 7 525
2021-11-08 0 0 0 84 5 740
2021-11-09 0 2 0 81 6 641
2021-11-10 0 2 0 115 6 991
2021-11-11 2 8 0 122 9 859
2021-11-12 0 3 0 125 14 014
2021-11-13 0 1 1 135 14 443
2021-11-14 0 3 0 153 13 594
2021-11-15 0 1 0 139 14 330
2021-11-16 0 2 1 132 10 656
2021-11-17 0 3 0 88 7 851
2021-11-18 0 1 0 88 9 836
2021-11-19 0 3 0 75 12 547
2021-11-20 0 4 0 72 7 556
2021-11-21 0 0 0 61 5 092
2021-11-22 4 7 0 67 7 221
2021-11-23 1 4 0 75 7 572
2021-11-24 0 3 0 71 7 662
2021-11-25 0 0 0 80 5 738
2021-11-26 0 1 0 75 6 288
2021-11-27 0 6 0 77 8 820
2021-11-28 0 2 0 83 6 614
2021-11-29 0 2 0 74 11 072
2021-11-30 0 1 0 122 11 240
Octobre 2021 20 208 15 159 298 103
2021-10-01 0 1 0 56 6 171
2021-10-02 0 9 1 86 9 181
2021-10-03 1 4 1 72 8 747
2021-10-04 0 3 0 68 6 532
2021-10-05 2 14 1 76 7 922
2021-10-06 0 3 0 125 9 753
2021-10-07 0 3 0 120 9 963
2021-10-08 1 6 1 99 7 587
2021-10-09 1 15 2 86 5 434
2021-10-10 0 4 0 93 8 119
2021-10-11 0 7 1 86 7 114
2021-10-12 1 7 0 85 11 069
2021-10-13 2 10 2 130 12 013
2021-10-14 0 3 0 119 11 498
2021-10-15 1 6 1 136 11 138
2021-10-16 0 11 0 159 11 492
2021-10-17 0 5 0 139 10 881
2021-10-18 0 3 0 130 12 452
2021-10-19 0 5 0 104 9 710
2021-10-20 3 9 0 85 9 720
2021-10-21 0 0 0 111 34 450
2021-10-22 2 11 1 69 8 430
2021-10-23 1 7 1 87 5 533
2021-10-24 1 13 1 74 9 651
2021-10-25 0 11 0 89 7 704
2021-10-26 3 9 0 83 9 231
2021-10-27 0 4 0 79 7 575
2021-10-28 1 7 1 76 7 069
2021-10-29 0 4 0 75 6 460
2021-10-30 0 7 1 88 7 194
2021-10-31 0 7 0 98 8 310
Septembre 2021 24 171 10 280 285 455
Août 2021 11 33 7 73 231 609
Juillet 2021 6 8 2 81 305 173
Juin 2021 17 31 2 135 311 168
Mai 2021 3 31 4 268 597 777
Avril 2021 10 51 6 287 308 355
Mars 2021 7 24 1 308 444 900
2021-03-01 0 0 0 72 8 645
2021-03-02 1 2 0 62 7 066
2021-03-03 0 1 0 58 5 404
2021-03-04 0 0 1 61 5 201
2021-03-05 0 0 0 63 8 432
2021-03-06 0 0 0 60 4 862
2021-03-07 0 1 0 50 4 615
2021-03-08 0 0 0 55 4 461
2021-03-09 0 0 0 58 6 240
2021-03-10 0 0 0 65 8 568
2021-03-11 1 3 0 62 4 993
2021-03-12 0 1 0 55 5 378
2021-03-13 0 0 0 60 4 371
2021-03-14 0 1 0 65 5 377
2021-03-15 1 1 0 69 7 164
2021-03-16 0 1 0 98 8 406
2021-03-17 1 6 0 308 16 132
2021-03-18 0 0 0 75 162 827
2021-03-19 0 0 0 83 38 605
2021-03-20 0 2 0 68 10 275
2021-03-21 0 0 0 72 11 763
2021-03-22 0 0 0 54 8 930
2021-03-23 0 0 0 94 11 374
2021-03-24 0 0 0 97 12 163
2021-03-25 0 0 0 117 11 569
2021-03-26 0 1 0 127 11 884
2021-03-27 0 1 0 104 7 707
2021-03-28 0 0 0 89 8 951
2021-03-29 0 0 0 77 10 399
2021-03-30 0 0 0 73 11 056
2021-03-31 3 3 0 77 12 082
Février 2021 5 29 2 338 223 056
2021-02-01 1 1 0 54 9 051
2021-02-02 0 1 0 50 7 915
2021-02-03 0 0 0 48 4 645
2021-02-04 0 3 0 48 5 872
2021-02-05 0 2 0 48 7 890
2021-02-06 0 0 0 47 6 585
2021-02-07 0 0 0 70 15 429
2021-02-08 0 1 0 54 7 692
2021-02-09 3 3 1 58 8 579
2021-02-10 0 2 0 69 8 517
2021-02-11 0 0 0 59 6 724
2021-02-12 0 4 0 61 8 593
2021-02-13 0 0 0 63 5 515
2021-02-14 0 0 0 62 6 322
2021-02-15 1 5 0 69 8 207
2021-02-16 0 1 0 75 9 081
2021-02-17 0 0 0 338 10 115
2021-02-18 0 0 0 79 7 644
2021-02-19 0 0 0 106 8 262
2021-02-20 0 1 0 78 5 723
2021-02-21 0 1 0 41 3 073
2021-02-22 0 0 0 84 5 600
2021-02-23 0 1 0 86 9 974
2021-02-24 0 3 1 116 9 261
2021-02-25 0 0 0 142 12 642
2021-02-26 0 0 0 140 10 029
2021-02-27 0 0 0 79 7 214
2021-02-28 0 0 0 78 6 902
Janvier 2021 5 34 0 322 447 548
* 2020 206 1 716 105 808 4 713 463
Décembre 2020 6 38 2 320 310 487
Novembre 2020 12 97 3 352 464 426
2020-11-01 0 1 0 116 10 715
2020-11-02 2 3 0 125 9 649
2020-11-03 0 7 0 102 10 433
2020-11-04 0 0 0 95 11 152
2020-11-05 0 3 0 92 11 950
2020-11-06 1 4 0 86 9 328
2020-11-07 0 9 0 79 13 532
2020-11-08 0 4 0 97 10 296
2020-11-09 1 6 0 85 10 894
2020-11-10 0 5 0 79 6 851
2020-11-11 0 1 0 83 6 495
2020-11-12 0 1 0 86 10 836
2020-11-13 0 1 0 80 9 519
2020-11-14 0 0 0 72 8 283
2020-11-15 0 2 0 77 8 335
2020-11-16 3 10 1 78 9 396
2020-11-17 0 1 0 104 10 915
2020-11-18 1 2 0 352 16 974
2020-11-19 0 4 0 95 11 042
2020-11-20 1 4 2 87 10 172
2020-11-21 0 1 0 87 9 318
2020-11-22 1 7 0 81 8 520
2020-11-23 0 2 0 86 12 898
2020-11-24 0 3 0 101 11 997
2020-11-25 0 2 0 113 14 003
2020-11-26 1 3 0 108 12 703
2020-11-27 0 6 0 90 63 154
2020-11-28 0 1 0 92 102 895
2020-11-29 0 2 0 105 11 784
2020-11-30 1 2 0 116 10 387
Octobre 2020 21 169 7 346 497 422
Septembre 2020 30 356 15 133 325 183
Août 2020 16 147 7 163 471 897
Juillet 2020 16 77 2 100 345 760
Juin 2020 17 60 5 127 452 817
2020-06-01 0 1 0 97 7 843
2020-06-02 7 8 0 99 6 624
2020-06-03 0 0 0 116 9 483
2020-06-04 0 0 0 127 10 949
2020-06-05 0 0 0 54 8 472
2020-06-06 0 0 0 60 11 941
2020-06-07 0 3 0 60 62 107
2020-06-08 0 1 1 59 116 791
2020-06-09 0 1 0 67 15 021
2020-06-10 2 6 0 51 11 623
2020-06-11 0 0 0 50 8 819
2020-06-12 0 0 0 54 9 812
2020-06-13 0 0 1 57 9 517
2020-06-14 0 1 0 54 10 890
2020-06-15 2 5 0 50 11 230
2020-06-16 0 3 0 66 11 587
2020-06-17 0 0 1 53 7 877
2020-06-18 0 0 0 53 7 889
2020-06-19 0 0 0 47 8 061
2020-06-20 0 1 0 49 10 663
2020-06-21 0 0 0 49 8 505
2020-06-22 0 2 0 51 8 058
2020-06-23 0 1 0 50 9 272
2020-06-24 1 7 1 59 9 508
2020-06-25 0 4 0 53 9 909
2020-06-26 0 1 0 53 10 161
2020-06-27 0 0 1 58 11 373
2020-06-28 0 0 0 63 8 637
2020-06-29 5 12 0 67 8 575
2020-06-30 0 3 0 56 11 620
Mai 2020 7 22 3 295 321 652
Avril 2020 10 47 1 189 300 030
Mars 2020 24 253 3 199 467 854
Février 2020 18 171 9 323 281 798
2020-02-01 0 6 1 110 22 857
2020-02-02 0 4 0 113 19 748
2020-02-03 3 6 2 225 8 437
2020-02-04 0 4 0 323 5 481
2020-02-05 0 1 1 124 6 151
2020-02-06 0 4 0 123 9 304
2020-02-07 0 5 0 154 11 432
2020-02-08 0 4 0 133 9 152
2020-02-09 0 3 0 131 10 284
2020-02-10 0 2 0 110 5 432
2020-02-11 3 10 0 135 4 471
2020-02-12 0 5 0 126 6 869
2020-02-13 0 5 0 128 11 009
2020-02-14 1 4 0 156 5 546
2020-02-15 0 2 0 171 6 296
2020-02-16 0 5 1 133 5 755
2020-02-17 4 21 1 132 8 743
2020-02-18 0 18 0 138 7 508
2020-02-19 0 2 0 137 7 400
2020-02-20 0 12 0 143 8 914
2020-02-21 1 9 1 154 8 884
2020-02-22 0 15 0 167 11 618
2020-02-23 0 1 0 164 12 863
2020-02-24 5 10 0 167 13 726
2020-02-25 0 1 0 196 13 396
2020-02-26 1 4 0 188 11 554
2020-02-27 0 5 1 132 9 231
2020-02-28 0 3 0 145 10 882
2020-02-29 0 0 1 132 8 855
Janvier 2020 29 279 48 808 474 137
* 2019 246 3 411 313 446 3 308 531
Décembre 2019 18 159 26 446 351 248
Novembre 2019 16 245 33 325 524 135
2019-11-01 1 5 3 104 6 570
2019-11-02 0 8 0 112 5 937
2019-11-03 5 17 2 103 5 135
2019-11-04 0 13 4 108 4 364
2019-11-05 1 7 1 101 4 644
2019-11-06 0 19 0 100 7 049
2019-11-07 0 16 0 107 5 602
2019-11-08 0 7 2 100 5 473
2019-11-09 0 10 2 115 4 378
2019-11-10 0 14 1 113 5 596
2019-11-11 2 6 0 98 4 288
2019-11-12 0 12 0 131 4 467
2019-11-13 0 9 1 114 5 320
2019-11-14 1 6 1 125 6 683
2019-11-15 1 13 1 120 4 926
2019-11-16 0 8 0 163 6 256
2019-11-17 0 3 0 134 5 852
2019-11-18 0 1 1 107 5 431
2019-11-19 0 9 4 99 4 758
2019-11-20 1 11 1 102 3 814
2019-11-21 0 6 0 117 9 376
2019-11-22 0 8 0 112 11 663
2019-11-23 0 6 0 101 8 399
2019-11-24 0 4 1 109 9 641
2019-11-25 0 2 2 112 8 759
2019-11-26 2 2 0 114 56 347
2019-11-27 2 6 1 111 123 100
2019-11-28 0 3 1 112 10 114
2019-11-29 0 8 2 110 67 835
2019-11-30 0 6 2 325 112 358
Octobre 2019 24 272 59 121 189 762
Septembre 2019 25 386 54 141 376 708
Août 2019 22 257 31 122 225 760
Juillet 2019 24 281 62 149 190 301
2019-07-01 4 24 0 104 8 142
2019-07-02 2 16 0 100 8 838
2019-07-03 0 5 0 95 8 928
2019-07-04 0 8 0 91 9 284
2019-07-05 1 10 1 91 6 175
2019-07-06 0 3 0 83 4 015
2019-07-07 0 3 0 89 3 603
2019-07-08 0 20 1 83 4 139
2019-07-09 0 11 0 90 7 781
2019-07-10 1 12 1 84 9 897
2019-07-11 0 15 0 91 7 893
2019-07-12 1 10 0 94 4 561
2019-07-13 0 1 0 88 3 908
2019-07-14 0 4 0 88 7 782
2019-07-15 0 8 0 92 8 996
2019-07-16 0 0 0 84 6 713
2019-07-17 0 7 1 92 7 822
2019-07-18 1 7 1 131 5 964
2019-07-19 3 17 0 88 3 871
2019-07-20 0 7 1 86 4 460
2019-07-21 0 6 1 149 3 654
2019-07-22 1 6 0 116 4 333
2019-07-23 0 3 0 124 2 777
2019-07-24 0 0 0 108 5 144
2019-07-25 1 6 8 136 6 264
2019-07-26 0 7 14 131 6 609
2019-07-27 0 6 4 131 6 579
2019-07-28 0 10 6 129 5 658
2019-07-29 1 17 9 110 5 459
2019-07-30 7 10 6 134 5 038
2019-07-31 1 22 8 142 6 014
Juin 2019 11 171 3 112 246 519
2019-06-01 0 1 0 103 2 817
2019-06-02 0 1 0 97 2 941
2019-06-03 0 3 0 91 6 524
2019-06-04 0 14 0 87 11 150
2019-06-05 0 8 0 90 9 570
2019-06-06 0 5 0 99 10 447
2019-06-07 1 16 1 109 8 522
2019-06-08 0 5 1 93 5 588
2019-06-09 0 8 0 92 4 131
2019-06-10 1 8 0 93 4 120
2019-06-11 1 5 1 105 29 392
2019-06-12 0 4 0 102 13 902
2019-06-13 0 1 0 98 5 417
2019-06-14 0 5 0 104 10 181
2019-06-15 0 0 0 99 11 438
2019-06-16 0 4 0 93 9 146
2019-06-17 1 3 0 99 7 622
2019-06-18 0 0 0 104 9 803
2019-06-19 2 4 0 102 8 936
2019-06-20 0 2 0 106 7 574
2019-06-21 0 5 0 100 7 703
2019-06-22 0 6 0 103 7 936
2019-06-23 0 9 0 108 6 964
2019-06-24 4 13 0 102 5 006
2019-06-25 0 4 0 103 3 748
2019-06-26 0 6 0 112 7 551
2019-06-27 0 10 0 104 6 651
2019-06-28 0 10 0 93 7 044
2019-06-29 0 3 0 100 8 017
2019-06-30 1 8 0 102 6 678
Mai 2019 23 311 10 167 218 891
Avril 2019 21 294 9 174 311 459
Mars 2019 22 372 16 142 344 146
2019-03-01 0 30 0 102 3 220
2019-03-02 0 23 0 102 3 097
2019-03-03 0 4 0 99 2 763
2019-03-04 0 5 0 105 2 518
2019-03-05 0 11 0 99 3 314
2019-03-06 0 11 1 97 5 983
2019-03-07 1 6 2 102 6 254
2019-03-08 1 24 1 100 9 845
2019-03-09 1 11 1 104 9 974
2019-03-10 0 18 0 109 12 925
2019-03-11 3 18 1 124 22 284
2019-03-12 0 14 0 120 15 724
2019-03-13 1 23 1 125 13 212
2019-03-14 0 7 1 132 13 861
2019-03-15 2 17 1 112 12 323
2019-03-16 0 6 1 135 11 288
2019-03-17 0 6 0 129 10 798
2019-03-18 1 8 0 122 10 562
2019-03-19 1 7 0 126 9 470
2019-03-20 1 16 1 122 10 084
2019-03-21 1 12 1 128 13 887
2019-03-22 0 4 0 129 13 984
2019-03-23 2 9 0 123 14 498
2019-03-24 4 13 0 129 36 957
2019-03-25 0 14 0 134 17 651
2019-03-26 1 11 1 126 9 572
2019-03-27 0 4 0 56 8 627
2019-03-28 0 14 1 142 8 864
2019-03-29 0 5 0 126 11 607
2019-03-30 0 2 0 131 10 223
2019-03-31 2 19 2 129 8 777
Février 2019 18 288 4 110 142 132
2019-02-01 1 22 0 98 4 055
2019-02-02 1 7 0 98 9 323
2019-02-03 2 8 0 106 10 729
2019-02-04 0 11 0 104 6 293
2019-02-05 0 10 0 85 1 711
2019-02-06 0 6 0 85 3 018
2019-02-07 0 13 0 90 2 793
2019-02-08 0 19 0 86 3 074
2019-02-09 0 4 0 83 2 745
2019-02-10 0 4 0 89 3 245
2019-02-11 0 1 0 76 1 985
2019-02-12 0 6 0 79 2 434
2019-02-13 0 2 0 83 2 736
2019-02-14 0 3 0 72 2 494
2019-02-15 1 6 0 79 5 880
2019-02-16 2 17 0 86 8 424
2019-02-17 2 16 1 105 10 226
2019-02-18 5 10 0 96 10 597
2019-02-19 0 9 0 102 8 445
2019-02-20 0 8 0 104 11 557
2019-02-21 0 5 0 96 5 694
2019-02-22 0 19 0 110 5 265
2019-02-23 1 14 0 96 4 284
2019-02-24 2 18 0 100 4 059
2019-02-25 0 3 2 97 3 055
2019-02-26 1 18 0 101 2 711
2019-02-27 0 8 0 100 2 345
2019-02-28 0 21 1 103 2 955
Janvier 2019 22 375 6 113 187 470
* 2018 338 6 176 81 641 2 624 946
Décembre 2018 43 306 8 253 421 582
Novembre 2018 26 467 9 641 383 363
2018-11-01 1 9 1 134 8 941
2018-11-02 0 12 0 138 13 320
2018-11-03 1 7 1 144 15 011
2018-11-04 5 36 0 176 20 866
2018-11-05 2 19 0 163 16 221
2018-11-06 1 18 1 130 15 015
2018-11-07 0 18 0 239 17 530
2018-11-08 1 13 1 200 11 015
2018-11-09 0 18 0 265 17 559
2018-11-10 1 13 1 262 23 662
2018-11-11 0 10 0 161 21 706
2018-11-12 1 22 0 274 33 147
2018-11-13 0 25 0 425 19 047
2018-11-14 1 18 1 550 12 156
2018-11-15 1 8 1 641 16 863
2018-11-16 1 14 0 168 16 611
2018-11-17 0 5 1 577 19 696
2018-11-18 0 5 0 184 9 470
2018-11-19 1 10 1 373 15 763
2018-11-20 1 23 0 257 11 354
2018-11-21 2 8 0 110 5 798
2018-11-22 0 9 0 89 5 367
2018-11-23 1 22 0 92 4 528
2018-11-24 1 21 0 30 2 309
2018-11-25 2 13 0 43 4 520
2018-11-26 2 26 0 34 2 339
2018-11-27 0 21 0 42 2 307
2018-11-28 0 20 0 116 5 597
2018-11-29 0 9 0 117 6 218
2018-11-30 0 15 0 109 9 427
Octobre 2018 34 527 6 321 248 725
2018-10-01 0 16 0 104 3 916
2018-10-02 2 19 0 102 5 182
2018-10-03 0 11 0 124 6 042
2018-10-04 1 8 0 89 7 397
2018-10-05 0 1 1 89 4 993
2018-10-06 1 10 0 123 5 725
2018-10-07 1 14 1 93 5 795
2018-10-08 2 17 0 102 5 479
2018-10-09 1 29 1 113 7 032
2018-10-10 1 19 0 139 7 853
2018-10-11 2 19 0 126 7 235
2018-10-12 1 28 0 140 7 594
2018-10-13 0 12 0 135 7 817
2018-10-14 5 26 0 146 7 428
2018-10-15 2 51 0 149 7 144
2018-10-16 0 22 0 102 6 306
2018-10-17 4 25 0 121 6 311
2018-10-18 2 14 0 122 6 339
2018-10-19 0 10 0 136 5 992
2018-10-20 0 8 0 115 6 644
2018-10-21 0 15 1 129 6 181
2018-10-22 0 11 0 112 5 588
2018-10-23 1 9 0 127 15 828
2018-10-24 1 15 1 135 23 623
2018-10-25 0 8 0 321 10 005
2018-10-26 2 34 1 145 7 134
2018-10-27 2 19 0 252 10 544
2018-10-28 0 9 0 276 9 982
2018-10-29 1 15 0 269 10 127
2018-10-30 2 21 0 207 9 059
2018-10-31 0 12 0 255 12 430
Septembre 2018 34 641 10 127 216 306
Août 2018 32 583 16 101 188 648
Juillet 2018 21 386 3 104 182 475
2018-07-01 0 17 0 98 5 851
2018-07-02 0 3 1 93 5 331
2018-07-03 0 9 0 102 6 039
2018-07-04 3 21 0 95 8 377
2018-07-05 0 5 0 89 5 211
2018-07-06 5 16 0 94 5 550
2018-07-07 0 10 0 92 5 422
2018-07-08 0 12 0 94 7 624
2018-07-09 1 11 1 93 5 229
2018-07-10 1 8 0 93 5 538
2018-07-11 0 19 0 86 5 102
2018-07-12 0 9 1 84 4 916
2018-07-13 0 17 0 82 5 453
2018-07-14 0 9 0 90 4 210
2018-07-15 0 7 0 82 5 017
2018-07-16 0 26 0 90 8 111
2018-07-17 1 19 0 102 5 632
2018-07-18 4 27 0 102 6 009
2018-07-19 1 28 0 99 6 343
2018-07-20 1 15 0 104 6 087
2018-07-21 1 13 0 93 6 072
2018-07-22 1 24 0 91 5 850
2018-07-23 0 12 0 97 6 595
2018-07-24 0 5 0 94 4 057
2018-07-25 0 5 0 96 6 576
2018-07-26 1 2 0 92 6 460
2018-07-27 0 11 0 89 6 309
2018-07-28 0 4 0 91 6 042
2018-07-29 0 5 0 93 5 366
2018-07-30 1 4 0 94 6 266
2018-07-31 0 13 0 87 5 830
Juin 2018 31 442 3 110 213 303
2018-06-01 0 14 0 88 5 056
2018-06-02 4 11 0 93 4 990
2018-06-03 0 9 0 82 2 169
2018-06-04 2 10 0 110 5 416
2018-06-05 0 11 1 110 5 638
2018-06-06 0 14 0 102 5 779
2018-06-07 1 5 0 95 5 120
2018-06-08 1 7 0 88 5 602
2018-06-09 1 8 0 95 4 834
2018-06-10 2 29 0 92 26 151
2018-06-11 0 6 0 98 18 021
2018-06-12 2 31 0 106 6 413
2018-06-13 1 21 0 102 6 468
2018-06-14 1 44 0 94 6 579
2018-06-15 0 14 0 107 5 965
2018-06-16 0 11 0 101 5 931
2018-06-17 2 7 1 106 6 370
2018-06-18 0 3 1 97 6 629
2018-06-19 3 25 0 97 6 644
2018-06-20 1 26 0 100 7 477
2018-06-21 3 12 0 92 7 344
2018-06-22 4 26 0 102 7 199
2018-06-23 0 14 0 99 8 418
2018-06-24 0 17 0 102 8 652
2018-06-25 2 19 0 104 7 248
2018-06-26 0 5 0 87 4 771
2018-06-27 0 8 0 97 5 100
2018-06-28 1 6 0 88 6 575
2018-06-29 0 20 0 91 5 177
2018-06-30 0 9 0 90 5 567
Mai 2018 21 422 4 107 174 393
Avril 2018 25 564 5 104 159 849
Mars 2018 20 634 4 96 152 933
Février 2018 25 631 7 93 121 912
2018-02-01 0 25 0 84 3 932
2018-02-02 0 16 0 93 3 849
2018-02-03 0 20 0 86 5 032
2018-02-04 1 17 0 81 4 606
2018-02-05 1 23 1 78 4 124
2018-02-06 0 8 0 76 3 893
2018-02-07 1 14 0 81 4 611
2018-02-08 4 44 2 87 4 610
2018-02-09 0 14 0 88 11 329
2018-02-10 0 25 0 82 9 515
2018-02-11 2 25 0 79 5 144
2018-02-12 4 65 1 80 5 149
2018-02-13 1 57 0 84 5 260
2018-02-14 0 11 0 74 3 020
2018-02-15 0 10 0 76 4 605
2018-02-16 0 13 0 79 4 615
2018-02-17 0 8 0 67 2 499
2018-02-18 2 38 0 71 5 101
2018-02-19 0 10 0 77 4 192
2018-02-20 0 16 1 64 3 560
2018-02-21 0 12 1 73 4 039
2018-02-22 0 25 0 68 4 479
2018-02-23 1 18 0 62 3 451
2018-02-24 0 14 0 64 2 075
2018-02-25 0 20 0 22 1 521
2018-02-26 4 33 0 35 2 611
2018-02-27 4 32 1 18 2 068
2018-02-28 0 18 0 19 3 022
Janvier 2018 26 573 6 94 161 457
* 2017 346 6 100 56 180 1 675 168
Décembre 2017 37 499 6 91 136 063
Novembre 2017 37 675 6 93 169 670
Octobre 2017 15 426 2 93 151 449
Septembre 2017 28 548 5 94 135 543
Août 2017 29 384 6 99 148 097
Juillet 2017 25 490 5 87 176 472
Juin 2017 33 603 4 89 156 248
2017-06-01 0 8 0 75 4 239
2017-06-02 1 17 1 65 4 409
2017-06-03 0 12 0 72 4 164
2017-06-04 0 3 0 70 3 563
2017-06-05 2 46 2 75 5 265
2017-06-06 1 33 0 68 4 164
2017-06-07 0 20 0 89 5 315
2017-06-08 0 14 0 87 7 512
2017-06-09 0 18 0 88 7 578
2017-06-10 1 2 1 80 6 209
2017-06-11 1 10 0 78 4 584
2017-06-12 1 25 0 77 6 725
2017-06-13 1 13 0 89 5 967
2017-06-14 0 8 0 80 4 236
2017-06-15 0 8 0 77 5 192
2017-06-16 0 23 0 66 4 501
2017-06-17 2 19 0 66 5 211
2017-06-18 1 40 0 68 5 927
2017-06-19 3 39 0 66 5 852
2017-06-20 0 21 0 67 5 460
2017-06-21 0 3 0 71 7 510
2017-06-22 1 28 0 65 5 213
2017-06-23 8 39 0 74 5 330
2017-06-24 2 24 0 66 4 707
2017-06-25 1 19 0 61 5 314
2017-06-26 1 50 0 62 7 390
2017-06-27 1 13 0 56 4 039
2017-06-28 2 17 0 63 3 554
2017-06-29 0 16 0 79 3 830
2017-06-30 3 15 0 64 3 288
Mai 2017 26 470 2 99 181 189
Avril 2017 31 490 5 180 139 896
Mars 2017 27 432 3 119 90 981
2017-03-01 1 13 0 20 1 366
2017-03-02 1 7 1 15 939
2017-03-03 4 15 0 16 1 322
2017-03-04 1 4 1 14 1 224
2017-03-05 0 11 0 14 760
2017-03-06 1 36 1 17 1 184
2017-03-07 0 14 0 18 1 120
2017-03-08 2 22 0 19 1 229
2017-03-09 1 23 0 15 1 153
2017-03-10 0 22 0 15 1 149
2017-03-11 0 15 0 16 1 171
2017-03-12 3 16 0 91 4 295
2017-03-13 0 14 0 91 4 471
2017-03-14 1 18 0 79 3 743
2017-03-15 0 9 0 71 3 377
2017-03-16 1 16 0 70 3 703
2017-03-17 0 8 0 73 3 263
2017-03-18 0 13 0 64 3 669
2017-03-19 0 9 0 92 3 639
2017-03-20 0 11 0 90 4 905
2017-03-21 2 6 0 83 5 720
2017-03-22 2 14 0 95 4 760
2017-03-23 1 9 0 66 6 486
2017-03-24 2 12 0 65 2 928
2017-03-25 0 15 0 67 3 275
2017-03-26 2 8 0 55 1 890
2017-03-27 0 16 0 119 3 309
2017-03-28 1 17 0 87 4 615
2017-03-29 0 20 0 86 4 109
2017-03-30 1 7 0 69 3 543
2017-03-31 0 12 0 73 2 664
Février 2017 31 587 7 87 74 924
Janvier 2017 27 496 5 80 114 636
* 2016 389 7 721 79 245 2 075 605
Décembre 2016 34 533 2 170 118 206
2016-12-01 0 1 0 74 3 445
2016-12-02 0 8 0 55 3 761
2016-12-03 0 7 0 58 2 184
2016-12-04 9 30 0 53 2 958
2016-12-05 0 35 0 65 4 219
2016-12-06 2 23 0 64 3 665
2016-12-07 1 23 0 60 4 594
2016-12-08 2 17 0 125 6 276
2016-12-09 1 21 0 76 3 458
2016-12-10 2 15 2 61 3 661
2016-12-11 1 37 0 68 3 369
2016-12-12 3 11 0 63 2 902
2016-12-13 0 10 0 59 3 821
2016-12-14 1 18 0 74 4 666
2016-12-15 0 18 0 72 3 378
2016-12-16 1 19 0 35 2 487
2016-12-17 0 8 0 73 2 573
2016-12-18 0 11 0 81 15 525
2016-12-19 1 15 0 61 3 437
2016-12-20 0 9 0 56 3 667
2016-12-21 0 15 0 54 2 974
2016-12-22 0 25 0 56 2 993
2016-12-23 0 13 0 56 3 867
2016-12-24 0 10 0 55 2 712
2016-12-25 1 11 0 170 3 278
2016-12-26 3 10 0 72 3 609
2016-12-27 3 23 0 59 2 265
2016-12-28 1 21 0 51 3 618
2016-12-29 0 34 0 55 2 903
2016-12-30 2 13 0 58 3 351
2016-12-31 0 22 0 54 2 590
Novembre 2016 34 586 6 245 122 991
Octobre 2016 43 726 7 191 160 217
2016-10-01 0 2 0 77 5 321
2016-10-02 1 21 0 58 3 379
2016-10-03 0 20 0 65 4 029
2016-10-04 4 16 0 54 5 012
2016-10-05 2 26 1 54 8 464
2016-10-06 2 23 0 54 4 844
2016-10-07 3 30 0 58 4 198
2016-10-08 0 20 0 79 5 202
2016-10-09 2 16 0 139 7 188
2016-10-10 0 23 0 67 5 666
2016-10-11 5 27 0 65 5 851
2016-10-12 1 57 0 55 5 424
2016-10-13 4 46 1 60 5 322
2016-10-14 3 27 0 63 4 776
2016-10-15 6 27 0 191 5 482
2016-10-16 1 37 1 83 5 433
2016-10-17 3 23 0 82 4 868
2016-10-18 0 9 0 66 3 634
2016-10-19 0 13 1 64 4 158
2016-10-20 0 22 1 56 15 180
2016-10-21 0 14 0 55 4 340
2016-10-22 1 19 0 57 3 387
2016-10-23 0 3 0 30 2 919
2016-10-24 1 40 1 78 4 044
2016-10-25 2 31 0 76 4 859
2016-10-26 0 26 0 72 5 816
2016-10-27 0 20 0 72 3 954
2016-10-28 0 19 0 70 4 387
2016-10-29 0 26 0 63 4 333
2016-10-30 1 16 0 66 4 530
2016-10-31 1 27 1 77 4 217
Septembre 2016 26 657 9 85 157 449
Août 2016 31 721 9 114 169 873
Juillet 2016 19 513 3 58 166 690
Juin 2016 30 565 5 53 211 715
2016-06-01 0 23 0 50 5 705
2016-06-02 0 11 0 43 5 378
2016-06-03 2 19 1 44 5 189
2016-06-04 3 11 1 41 4 784
2016-06-05 0 5 0 43 4 968
2016-06-06 0 12 0 42 4 648
2016-06-07 1 23 0 38 4 900
2016-06-08 3 37 0 44 5 735
2016-06-09 0 14 0 45 5 120
2016-06-10 1 34 0 44 6 103
2016-06-11 1 16 0 41 10 876
2016-06-12 2 17 1 41 13 531
2016-06-13 1 35 0 53 6 090
2016-06-14 3 21 1 41 5 179
2016-06-15 0 17 0 51 5 317
2016-06-16 1 28 1 42 5 293
2016-06-17 1 21 0 44 5 043
2016-06-18 1 23 0 43 5 316
2016-06-19 3 20 0 42 5 955
2016-06-20 2 35 0 42 6 606
2016-06-21 1 25 0 44 7 531
2016-06-22 0 23 0 38 6 542
2016-06-23 0 25 0 42 7 081
2016-06-24 0 11 0 43 8 292
2016-06-25 0 10 0 44 10 674
2016-06-26 0 7 0 44 4 154
2016-06-27 2 5 0 41 6 089
2016-06-28 1 12 0 38 13 559
2016-06-29 1 15 0 43 13 424
2016-06-30 0 10 0 53 12 633
Mai 2016 40 1 116 8 94 166 514
Avril 2016 27 529 7 65 155 208
Mars 2016 35 513 11 88 224 056
2016-03-01 0 6 0 84 7 045
2016-03-02 1 11 1 83 17 011
2016-03-03 0 7 0 79 6 329
2016-03-04 1 18 0 71 5 591
2016-03-05 0 8 0 68 5 241
2016-03-06 4 24 2 77 5 361
2016-03-07 0 24 0 76 5 677
2016-03-08 0 25 0 79 5 918
2016-03-09 1 32 0 88 5 988
2016-03-10 1 14 0 68 5 103
2016-03-11 2 24 0 71 5 694
2016-03-12 1 12 2 75 5 118
2016-03-13 2 17 0 76 5 419
2016-03-14 1 25 0 24 3 103
2016-03-15 1 18 0 24 3 559
2016-03-16 1 11 0 19 2 822
2016-03-17 0 11 0 18 2 814
2016-03-18 0 15 0 74 8 907
2016-03-19 1 8 2 84 11 132
2016-03-20 4 42 2 23 4 754
2016-03-21 0 17 0 86 21 637
2016-03-22 2 11 0 31 3 560
2016-03-23 0 6 1 80 6 777
2016-03-24 2 23 0 70 6 789
2016-03-25 1 7 0 63 5 275
2016-03-26 0 10 0 75 7 097
2016-03-27 1 10 0 29 4 648
2016-03-28 4 14 1 65 8 721
2016-03-29 1 16 0 70 7 413
2016-03-30 0 15 0 66 20 524
2016-03-31 3 32 0 64 9 029
Février 2016 35 640 4 96 192 454
Janvier 2016 35 622 8 95 230 232
* 2015 373 6 684 79 100 1 549 803
Décembre 2015 28 499 7 68 140 303
2015-12-01 0 25 0 16 2 350
2015-12-02 0 13 0 16 2 355
2015-12-03 1 32 1 21 3 677
2015-12-04 0 20 0 17 2 064
2015-12-05 0 16 1 21 3 894
2015-12-06 0 13 0 20 5 745
2015-12-07 0 6 0 35 3 625
2015-12-08 1 17 0 32 4 443
2015-12-09 0 4 0 35 7 622
2015-12-10 1 6 0 32 5 400
2015-12-11 0 19 0 35 19 913
2015-12-12 1 21 1 25 3 299
2015-12-13 7 38 0 30 4 377
2015-12-14 0 26 0 27 3 642
2015-12-15 2 29 1 32 5 486
2015-12-16 4 39 0 37 6 111
2015-12-17 0 14 0 18 3 269
2015-12-18 0 17 0 13 2 944
2015-12-19 1 16 0 18 3 387
2015-12-20 0 14 0 17 3 339
2015-12-21 0 2 0 14 2 174
2015-12-22 0 0 1 21 3 147
2015-12-23 2 10 0 14 2 552
2015-12-24 1 11 0 43 2 912
2015-12-25 2 20 0 13 2 346
2015-12-26 0 10 0 12 2 235
2015-12-27 1 11 0 10 6 406
2015-12-28 3 29 1 65 5 360
2015-12-29 0 2 1 53 4 266
2015-12-30 1 12 0 68 5 376
2015-12-31 0 7 0 57 6 587
Novembre 2015 40 724 5 35 146 607
2015-11-01 1 18 0 27 4 452
2015-11-02 0 9 0 24 5 327
2015-11-03 1 7 0 22 11 240
2015-11-04 0 0 0 18 11 102
2015-11-05 0 4 0 24 12 062
2015-11-06 1 19 0 20 6 702
2015-11-07 7 38 0 21 3 288
2015-11-08 0 25 0 20 5 256
2015-11-09 0 32 0 22 3 384
2015-11-10 0 11 0 21 2 914
2015-11-11 0 8 0 22 2 384
2015-11-12 0 24 0 30 2 736
2015-11-13 0 32 0 20 2 709
2015-11-14 2 21 1 24 3 133
2015-11-15 2 28 0 21 18 160
2015-11-16 0 28 0 22 4 664
2015-11-17 0 22 0 35 3 181
2015-11-18 6 48 1 20 3 200
2015-11-19 1 28 0 29 3 049
2015-11-20 10 39 2 20 2 941
2015-11-21 1 10 0 17 3 452
2015-11-22 0 33 0 18 4 436
2015-11-23 1 21 1 32 4 524
2015-11-24 1 28 0 23 5 198
2015-11-25 1 23 0 19 4 024
2015-11-26 1 29 0 15 2 788
2015-11-27 0 39 0 16 3 090
2015-11-28 1 29 0 20 2 052
2015-11-29 1 29 0 18 2 495
2015-11-30 2 42 0 24 2 664
Octobre 2015 32 760 10 84 227 528
2015-10-01 1 18 0 82 8 525
2015-10-02 1 10 0 80 4 829
2015-10-03 0 7 0 13 2 541
2015-10-04 0 7 0 74 5 391
2015-10-05 3 45 2 39 10 558
2015-10-06 4 42 1 84 20 928
2015-10-07 0 30 0 79 21 334
2015-10-08 0 12 0 39 12 723
2015-10-09 1 14 2 22 4 574
2015-10-10 0 8 0 80 5 752
2015-10-11 1 36 0 23 4 613
2015-10-12 3 25 0 23 3 928
2015-10-13 0 35 0 20 3 575
2015-10-14 3 25 0 79 9 055
2015-10-15 1 32 0 22 7 638
2015-10-16 1 43 0 82 8 658
2015-10-17 0 34 0 62 6 865
2015-10-18 2 31 0 66 5 798
2015-10-19 0 21 0 73 5 660
2015-10-20 1 29 0 23 4 062
2015-10-21 0 22 0 28 20 035
2015-10-22 1 22 1 27 6 384
2015-10-23 2 15 0 25 6 058
2015-10-24 2 27 2 26 4 323
2015-10-25 0 11 0 32 4 915
2015-10-26 2 22 0 31 4 192
2015-10-27 0 26 1 41 5 915
2015-10-28 1 28 0 41 5 310
2015-10-29 2 29 0 21 4 485
2015-10-30 0 38 0 23 4 216
2015-10-31 0 16 1 27 4 688
Septembre 2015 40 948 13 100 169 012
Août 2015 36 566 12 61 119 954
Juillet 2015 29 462 7 31 89 666
Juin 2015 24 453 5 30 112 317
Mai 2015 30 390 2 24 73 874
Avril 2015 29 408 4 25 95 371
Mars 2015 38 550 7 37 130 116
2015-03-01 6 23 0 17 2 804
2015-03-02 1 11 0 19 6 535
2015-03-03 1 24 0 20 7 827
2015-03-04 1 8 0 21 6 847
2015-03-05 2 12 0 18 4 653
2015-03-06 2 23 1 37 2 453
2015-03-07 0 10 0 14 2 686
2015-03-08 0 19 0 14 2 573
2015-03-09 1 20 0 16 2 393
2015-03-10 1 14 1 14 2 610
2015-03-11 0 8 0 20 2 571
2015-03-12 1 14 0 18 2 502
2015-03-13 0 16 0 20 3 764
2015-03-14 0 8 0 20 4 537
2015-03-15 3 22 1 19 5 142
2015-03-16 0 8 0 14 2 163
2015-03-17 0 16 0 15 1 726
2015-03-18 0 2 0 14 1 638
2015-03-19 2 12 0 21 4 946
2015-03-20 2 14 1 21 7 189
2015-03-21 2 27 1 20 9 145
2015-03-22 1 11 0 27 8 492
2015-03-23 6 18 1 21 6 865
2015-03-24 1 23 1 17 4 732
2015-03-25 0 36 0 24 3 346
2015-03-26 1 33 0 19 3 386
2015-03-27 0 12 0 18 3 367
2015-03-28 0 8 0 20 4 407
2015-03-29 4 47 0 17 4 241
2015-03-30 0 38 0 15 2 577
2015-03-31 0 13 0 24 1 999
Février 2015 15 434 2 24 123 854
Janvier 2015 32 490 5 44 121 201
* 2014 428 7 364 58 58 2 478 164
Décembre 2014 24 360 4 33 191 610
2014-12-01 0 4 0 21 6 641
2014-12-02 2 17 0 26 7 244
2014-12-03 0 9 0 31 7 910
2014-12-04 1 11 0 26 8 107
2014-12-05 1 10 1 23 7 074
2014-12-06 0 6 0 33 8 321
2014-12-07 1 18 0 20 5 632
2014-12-08 1 17 0 24 7 793
2014-12-09 1 19 0 21 5 936
2014-12-10 0 8 0 17 5 092
2014-12-11 0 6 0 20 5 467
2014-12-12 0 6 0 27 7 318
2014-12-13 1 17 0 23 10 029
2014-12-14 1 6 0 24 6 467
2014-12-15 1 12 0 23 8 102
2014-12-16 0 12 0 20 6 013
2014-12-17 0 3 0 22 6 999
2014-12-18 0 5 1 22 6 892
2014-12-19 1 10 0 21 7 099
2014-12-20 1 13 0 19 7 148
2014-12-21 0 2 0 27 4 864
2014-12-22 0 2 0 23 5 428
2014-12-23 2 12 0 20 5 923
2014-12-24 1 11 0 21 4 951
2014-12-25 0 8 1 19 4 762
2014-12-26 6 28 0 17 4 609
2014-12-27 0 21 0 24 6 807
2014-12-28 3 51 1 19 4 079
2014-12-29 0 9 0 17 3 335
2014-12-30 0 3 0 16 2 402
2014-12-31 0 4 0 18 3 166
Novembre 2014 37 572 7 46 525 858
Octobre 2014 45 928 8 58 364 915
2014-10-01 2 17 0 19 4 681
2014-10-02 1 19 0 20 4 689
2014-10-03 2 14 0 14 3 669
2014-10-04 0 5 0 17 3 255
2014-10-05 0 1 0 19 2 928
2014-10-06 0 11 0 21 3 996
2014-10-07 3 25 1 20 3 179
2014-10-08 2 38 0 25 5 334
2014-10-09 2 52 0 23 6 395
2014-10-10 4 54 1 20 5 653
2014-10-11 0 14 0 27 6 513
2014-10-12 4 38 0 20 4 101
2014-10-13 1 60 1 23 7 192
2014-10-14 1 40 1 21 5 942
2014-10-15 0 50 0 19 8 910
2014-10-16 4 67 1 20 7 064
2014-10-17 2 59 0 24 7 070
2014-10-18 0 8 0 18 8 711
2014-10-19 1 18 0 14 7 781
2014-10-20 3 75 2 22 5 872
2014-10-21 2 43 0 21 6 010
2014-10-22 1 17 0 21 7 505
2014-10-23 2 34 0 20 6 639
2014-10-24 0 22 0 19 8 041
2014-10-25 2 16 0 24 10 924
2014-10-26 0 21 0 32 24 155
2014-10-27 0 16 0 41 31 060
2014-10-28 2 11 1 40 35 764
2014-10-29 3 46 0 58 43 273
2014-10-30 1 31 0 54 39 908
2014-10-31 0 6 0 53 38 701
Septembre 2014 24 549 8 32 162 413
Août 2014 17 251 4 27 191 624
Juillet 2014 25 369 3 30 236 312
2014-07-01 1 10 0 19 5 255
2014-07-02 2 27 0 18 5 751
2014-07-03 1 33 0 28 6 315
2014-07-04 1 28 1 30 9 465
2014-07-05 0 18 0 28 10 029
2014-07-06 0 9 0 22 8 518
2014-07-07 2 9 0 26 4 726
2014-07-08 1 9 1 20 6 102
2014-07-09 1 7 0 20 6 697
2014-07-10 0 5 0 22 5 937
2014-07-11 0 12 0 13 5 141
2014-07-12 0 8 0 23 8 506
2014-07-13 1 7 0 19 9 921
2014-07-14 1 16 0 12 5 280
2014-07-15 4 12 0 13 3 488
2014-07-16 1 7 0 28 10 016
2014-07-17 0 9 0 24 16 100
2014-07-18 0 11 0 23 16 608
2014-07-19 1 7 0 18 16 697
2014-07-20 1 7 0 20 4 967
2014-07-21 0 1 0 26 6 993
2014-07-22 1 11 0 21 8 213
2014-07-23 0 13 0 23 8 227
2014-07-24 0 1 0 23 8 500
2014-07-25 1 8 0 21 8 352
2014-07-26 0 4 0 21 6 351
2014-07-27 1 22 1 11 2 847
2014-07-28 2 21 0 17 4 541
2014-07-29 0 7 0 16 6 234
2014-07-30 0 17 0 18 5 977
2014-07-31 2 13 0 15 4 558
Juin 2014 29 602 3 32 220 918
2014-06-01 1 5 0 24 6 791
2014-06-02 1 10 0 20 3 083
2014-06-03 1 21 0 28 5 918
2014-06-04 0 9 0 24 7 578
2014-06-05 2 32 0 23 6 468
2014-06-06 0 15 0 27 5 750
2014-06-07 1 20 0 27 6 064
2014-06-08 0 16 0 25 5 982
2014-06-09 0 15 0 31 5 881
2014-06-10 1 15 0 27 6 293
2014-06-11 1 26 0 32 9 966
2014-06-12 1 15 0 24 9 897
2014-06-13 1 18 0 29 6 454
2014-06-14 3 16 1 18 6 297
2014-06-15 0 27 0 28 10 859
2014-06-16 1 25 0 27 11 904
2014-06-17 1 24 0 27 7 926
2014-06-18 1 36 0 25 7 600
2014-06-19 0 16 0 25 7 850
2014-06-20 0 21 1 17 5 649
2014-06-21 1 24 0 16 7 833
2014-06-22 1 12 1 19 11 161
2014-06-23 4 41 0 25 12 869
2014-06-24 2 29 0 20 12 603
2014-06-25 1 27 0 20 6 974
2014-06-26 2 21 0 20 4 216
2014-06-27 1 17 0 20 5 405
2014-06-28 0 12 0 15 4 740
2014-06-29 0 20 0 16 4 717
2014-06-30 1 17 0 18 6 190
Mai 2014 34 842 6 29 157 174
Avril 2014 45 662 1 25 104 486
Mars 2014 32 595 4 26 120 439
2014-03-01 0 12 1 20 3 786
2014-03-02 1 4 1 24 3 590
2014-03-03 0 7 0 20 2 446
2014-03-04 0 23 0 20 3 629
2014-03-05 2 22 0 21 3 661
2014-03-06 1 18 0 20 2 585
2014-03-07 0 15 0 23 2 700
2014-03-08 1 13 0 21 2 461
2014-03-09 0 4 0 19 2 983
2014-03-10 0 19 0 16 2 791
2014-03-11 1 19 0 19 3 130
2014-03-12 0 16 0 21 3 522
2014-03-13 1 31 0 22 5 550
2014-03-14 0 16 0 26 4 818
2014-03-15 1 11 0 21 5 306
2014-03-16 4 19 0 24 6 026
2014-03-17 3 25 0 20 3 862
2014-03-18 2 35 0 22 5 721
2014-03-19 0 19 0 21 4 981
2014-03-20 1 25 1 18 3 637
2014-03-21 1 27 0 24 5 005
2014-03-22 1 13 0 20 4 151
2014-03-23 4 27 0 20 5 982
2014-03-24 2 46 0 21 4 374
2014-03-25 0 26 0 18 2 690
2014-03-26 2 23 1 19 3 653
2014-03-27 0 19 0 20 3 562
2014-03-28 3 18 0 20 3 984
2014-03-29 0 17 0 17 3 432
2014-03-30 0 7 0 17 2 121
2014-03-31 1 19 0 18 4 300
Février 2014 24 660 5 28 102 996
2014-02-01 1 22 0 23 2 869
2014-02-02 1 33 0 22 3 362
2014-02-03 1 60 0 23 3 816
2014-02-04 0 33 0 20 3 763
2014-02-05 0 40 0 18 3 526
2014-02-06 1 21 1 15 3 424
2014-02-07 1 22 0 16 2 254
2014-02-08 2 20 0 13 1 959
2014-02-09 2 42 0 14 4 999
2014-02-10 0 32 0 19 2 823
2014-02-11 3 37 0 14 2 859
2014-02-12 0 24 0 15 2 417
2014-02-13 0 16 1 15 2 924
2014-02-14 0 11 0 14 2 482
2014-02-15 1 16 1 18 3 069
2014-02-16 0 13 0 24 3 497
2014-02-17 0 5 0 20 3 495
2014-02-18 0 9 0 19 3 924
2014-02-19 3 21 0 25 5 311
2014-02-20 0 58 0 24 6 280
2014-02-21 0 22 0 22 4 472
2014-02-22 0 14 1 22 3 599
2014-02-23 1 23 1 21 5 173
2014-02-24 0 14 0 26 3 800
2014-02-25 0 9 0 28 6 099
2014-02-26 3 10 0 19 3 668
2014-02-27 1 17 0 24 3 604
2014-02-28 3 16 0 22 3 528
Janvier 2014 92 974 5 33 99 419
* 2013 408 8 887 76 89 1 597 727
Décembre 2013 36 785 2 79 132 305
2013-12-01 3 40 0 21 5 124
2013-12-02 0 18 0 23 3 630
2013-12-03 1 22 0 18 2 691
2013-12-04 0 21 0 20 2 917
2013-12-05 2 34 1 74 3 596
2013-12-06 0 14 0 29 4 033
2013-12-07 0 11 0 21 3 141
2013-12-08 2 50 0 20 11 319
2013-12-09 3 47 0 79 15 790
2013-12-10 0 42 0 40 6 438
2013-12-11 0 29 0 23 4 171
2013-12-12 1 32 0 22 3 225
2013-12-13 1 21 0 26 3 543
2013-12-14 0 11 0 23 4 807
2013-12-15 0 20 0 17 3 540
2013-12-16 5 50 0 22 4 009
2013-12-17 2 27 0 23 3 856
2013-12-18 1 53 0 23 4 339
2013-12-19 0 23 0 18 3 138
2013-12-20 0 5 0 16 1 779
2013-12-21 1 26 0 22 3 370
2013-12-22 3 27 0 22 4 250
2013-12-23 0 7 1 16 2 431
2013-12-24 1 16 0 14 2 139
2013-12-25 1 20 0 14 2 448
2013-12-26 0 14 0 17 3 918
2013-12-27 0 31 0 27 3 690
2013-12-28 2 32 0 22 4 302
2013-12-29 2 16 0 19 3 362
2013-12-30 3 13 0 15 3 871
2013-12-31 2 13 0 19 3 438
Novembre 2013 36 751 8 29 141 119
Octobre 2013 37 683 10 26 116 570
Septembre 2013 33 723 15 29 160 779
Août 2013 20 356 4 30 113 960
Juillet 2013 21 331 2 24 120 164
2013-07-01 0 9 0 24 4 330
2013-07-02 1 11 0 16 2 693
2013-07-03 4 28 0 23 4 775
2013-07-04 2 26 0 16 4 174
2013-07-05 0 16 0 20 4 074
2013-07-06 0 8 0 21 4 135
2013-07-07 1 6 0 17 2 726
2013-07-08 1 11 0 17 4 747
2013-07-09 0 9 0 18 3 831
2013-07-10 0 5 0 16 3 040
2013-07-11 1 6 0 19 4 713
2013-07-12 1 16 0 19 4 099
2013-07-13 0 3 0 14 4 400
2013-07-14 0 2 0 15 3 941
2013-07-15 0 2 0 15 3 367
2013-07-16 1 4 0 18 4 261
2013-07-17 2 23 0 22 3 788
2013-07-18 0 16 0 15 3 415
2013-07-19 1 2 0 16 2 111
2013-07-20 1 7 0 17 1 889
2013-07-21 0 5 0 18 4 035
2013-07-22 2 21 0 15 10 438
2013-07-23 0 9 1 18 4 311
2013-07-24 1 12 0 15 4 353
2013-07-25 1 15 0 24 3 021
2013-07-26 0 10 0 20 4 122
2013-07-27 1 12 0 12 2 914
2013-07-28 0 7 0 17 2 977
2013-07-29 0 13 0 19 2 352
2013-07-30 0 9 1 17 2 615
2013-07-31 0 8 0 18 4 517
Juin 2013 40 731 5 34 119 512
Mai 2013 34 881 3 47 157 484
Avril 2013 38 799 8 33 124 279
Mars 2013 40 1 111 9 62 147 762
Février 2013 32 838 5 79 125 299
Janvier 2013 41 898 5 89 138 494
* 2012 446 10 690 67 157 1 274 957
Décembre 2012 57 1 411 4 45 150 137
2012-12-01 3 30 0 17 8 865
2012-12-02 0 39 0 29 12 336
2012-12-03 1 44 0 36 10 973
2012-12-04 1 36 0 25 8 090
2012-12-05 4 63 1 18 4 442
2012-12-06 3 55 0 22 3 938
2012-12-07 1 57 0 20 4 955
2012-12-08 1 21 0 36 3 479
2012-12-09 2 28 0 18 3 093
2012-12-10 2 73 0 19 5 209
2012-12-11 0 64 0 17 4 348
2012-12-12 2 32 0 16 3 366
2012-12-13 1 48 0 20 3 104
2012-12-14 1 41 0 20 3 934
2012-12-15 0 9 0 16 2 675
2012-12-16 6 94 1 23 4 989
2012-12-17 2 90 1 24 5 481
2012-12-18 4 48 1 45 5 932
2012-12-19 3 94 0 19 4 628
2012-12-20 2 61 0 38 4 148
2012-12-21 2 83 0 33 4 280
2012-12-22 1 17 0 18 3 038
2012-12-23 1 25 0 21 2 732
2012-12-24 0 19 0 17 5 198
2012-12-25 1 20 0 16 2 480
2012-12-26 1 11 0 20 2 873
2012-12-27 4 56 0 20 4 317
2012-12-28 3 33 0 20 2 804
2012-12-29 3 36 0 21 4 004
2012-12-30 0 54 0 24 4 260
2012-12-31 2 30 0 23 6 166
Novembre 2012 46 1 137 8 25 112 399
2012-11-01 4 28 0 21 2 832
2012-11-02 4 55 0 18 3 206
2012-11-03 0 21 0 22 3 154
2012-11-04 0 31 0 15 2 586
2012-11-05 4 82 1 25 4 080
2012-11-06 2 42 0 16 3 097
2012-11-07 1 48 0 22 4 970
2012-11-08 0 28 0 16 3 568
2012-11-09 1 49 0 19 4 597
2012-11-10 1 10 0 16 2 795
2012-11-11 0 17 0 21 2 967
2012-11-12 0 23 0 18 3 459
2012-11-13 5 42 1 19 3 524
2012-11-14 3 51 2 19 5 413
2012-11-15 2 33 0 22 3 002
2012-11-16 0 25 0 17 3 266
2012-11-17 0 18 0 14 3 418
2012-11-18 3 41 0 19 3 365
2012-11-19 1 47 0 22 3 809
2012-11-20 3 55 0 21 3 598
2012-11-21 2 73 2 23 4 155
2012-11-22 1 32 0 18 4 168
2012-11-23 0 29 0 21 3 704
2012-11-24 0 16 0 24 3 065
2012-11-25 3 46 0 15 3 966
2012-11-26 3 68 1 20 5 492
2012-11-27 1 36 0 18 5 358
2012-11-28 1 50 0 25 3 829
2012-11-29 1 29 1 25 4 706
2012-11-30 0 12 0 15 3 250
Octobre 2012 45 1 068 7 25 80 970
Septembre 2012 37 876 11 38 107 023
Août 2012 30 595 5 41 95 032
Juillet 2012 24 563 2 157 78 638
Juin 2012 39 984 10 33 88 620
2012-06-01 0 22 0 22 2 768
2012-06-02 2 19 0 16 2 287
2012-06-03 2 49 1 20 2 991
2012-06-04 1 20 0 18 2 557
2012-06-05 0 18 0 25 2 088
2012-06-06 2 20 0 16 2 460
2012-06-07 1 31 1 22 3 106
2012-06-08 1 47 1 18 3 140
2012-06-09 2 34 1 21 2 277
2012-06-10 0 50 1 18 3 163
2012-06-11 3 54 0 16 2 912
2012-06-12 4 24 1 19 2 270
2012-06-13 3 26 0 33 2 675
2012-06-14 0 21 1 14 2 735
2012-06-15 0 14 0 16 2 910
2012-06-16 0 14 0 16 2 617
2012-06-17 1 12 0 16 3 557
2012-06-18 1 55 1 23 4 850
2012-06-19 2 39 0 20 3 959
2012-06-20 2 37 1 21 4 389
2012-06-21 1 26 0 21 3 322
2012-06-22 0 24 0 17 2 839
2012-06-23 1 35 0 15 2 885
2012-06-24 0 32 0 17 2 599
2012-06-25 1 51 0 20 3 408
2012-06-26 2 49 0 18 2 936
2012-06-27 3 22 1 23 2 275
2012-06-28 1 76 0 22 3 034
2012-06-29 1 32 0 18 2 424
2012-06-30 2 31 0 17 3 187
Mai 2012 22 703 5 26 77 701
Avril 2012 33 714 4 33 95 151
Mars 2012 35 977 5 48 160 160
2012-03-01 1 35 0 27 6 158
2012-03-02 3 13 2 26 5 378
2012-03-03 0 18 0 23 5 671
2012-03-04 4 28 1 20 5 358
2012-03-05 4 89 0 29 6 627
2012-03-06 1 45 0 45 6 165
2012-03-07 0 59 0 20 7 932
2012-03-08 3 35 0 46 6 667
2012-03-09 1 33 0 21 6 097
2012-03-10 0 22 0 21 5 441
2012-03-11 1 28 0 25 5 443
2012-03-12 1 20 0 25 5 930
2012-03-13 0 15 0 21 5 416
2012-03-14 2 34 0 48 6 562
2012-03-15 0 17 0 31 4 576
2012-03-16 0 14 0 30 4 508
2012-03-17 1 25 0 25 4 761
2012-03-18 1 39 0 27 5 081
2012-03-19 2 29 0 40 5 719
2012-03-20 2 51 0 24 5 746
2012-03-21 1 42 1 23 4 563
2012-03-22 0 34 0 23 4 276
2012-03-23 1 25 0 18 4 565
2012-03-24 2 38 1 21 4 568
2012-03-25 2 25 0 22 3 868
2012-03-26 1 34 0 21 4 653
2012-03-27 1 41 0 22 3 772
2012-03-28 0 16 0 23 3 667
2012-03-29 0 22 0 27 3 720
2012-03-30 0 20 0 24 3 175
2012-03-31 0 31 0 18 4 097
Février 2012 34 704 5 33 117 877
2012-02-01 4 29 0 21 3 610
2012-02-02 2 26 0 24 5 279
2012-02-03 0 13 0 16 3 779
2012-02-04 1 23 0 19 3 802
2012-02-05 1 18 0 21 4 835
2012-02-06 4 31 1 28 4 403
2012-02-07 3 36 0 21 3 830
2012-02-08 0 16 0 21 3 805
2012-02-09 1 23 0 21 3 894
2012-02-10 0 29 1 23 3 679
2012-02-11 0 7 0 24 3 043
2012-02-12 0 17 0 25 3 175
2012-02-13 2 14 1 13 2 124
2012-02-14 0 34 0 22 3 657
2012-02-15 2 25 0 25 3 278
2012-02-16 0 5 0 24 2 556
2012-02-17 0 15 1 24 3 186
2012-02-18 1 10 0 17 2 384
2012-02-19 4 21 0 20 2 559
2012-02-20 1 31 0 23 2 799
2012-02-21 1 45 0 21 4 992
2012-02-22 0 31 0 32 6 101
2012-02-23 0 9 0 31 5 330
2012-02-24 1 28 0 22 4 611
2012-02-25 2 20 1 32 4 925
2012-02-26 2 50 0 29 5 297
2012-02-27 1 26 0 33 4 546
2012-02-28 1 45 0 23 5 919
2012-02-29 0 27 0 26 6 479
Janvier 2012 44 958 1 30 111 249
* 2011 822 21 877 118 48 1 861 895
Décembre 2011 68 1 315 7 36 141 929
Novembre 2011 94 1 539 4 36 150 015
2011-11-01 3 44 0 23 4 947
2011-11-02 6 67 0 20 4 287
2011-11-03 4 65 0 24 4 618
2011-11-04 10 91 0 19 4 838
2011-11-05 6 39 0 21 3 164
2011-11-06 4 77 0 21 4 609
2011-11-07 6 77 1 20 4 952
2011-11-08 2 48 0 19 3 243
2011-11-09 2 36 0 22 4 723
2011-11-10 4 55 0 19 3 721
2011-11-11 2 37 0 20 3 239
2011-11-12 2 15 0 21 4 391
2011-11-13 1 21 0 27 4 446
2011-11-14 4 60 0 27 4 759
2011-11-15 5 58 0 25 7 805
2011-11-16 2 50 0 23 3 902
2011-11-17 2 49 0 18 3 185
2011-11-18 1 67 0 26 6 226
2011-11-19 0 38 0 26 6 646
2011-11-20 2 61 1 36 8 056
2011-11-21 1 45 0 25 6 692
2011-11-22 1 31 0 30 6 080
2011-11-23 4 50 0 23 4 242
2011-11-24 1 40 0 25 5 667
2011-11-25 2 45 0 24 3 992
2011-11-26 2 43 1 19 3 693
2011-11-27 2 65 1 26 5 393
2011-11-28 4 77 0 31 5 999
2011-11-29 2 39 0 33 5 234
2011-11-30 7 49 0 29 7 266
Octobre 2011 81 1 597 13 41 169 207
Septembre 2011 96 1 991 19 24 158 540
Août 2011 68 1 372 16 48 135 201
2011-08-01 1 53 3 16 3 486
2011-08-02 2 33 2 18 3 048
2011-08-03 0 24 0 18 2 915
2011-08-04 3 25 0 16 2 649
2011-08-05 2 35 0 20 3 005
2011-08-06 0 17 0 15 2 618
2011-08-07 2 23 0 12 3 445
2011-08-08 2 63 0 15 3 465
2011-08-09 1 29 0 21 2 868
2011-08-10 1 35 0 22 2 729
2011-08-11 2 42 0 17 2 980
2011-08-12 1 57 0 21 3 655
2011-08-13 1 15 0 12 1 914
2011-08-14 3 11 0 16 2 022
2011-08-15 3 26 0 18 3 670
2011-08-16 2 32 0 11 9 114
2011-08-17 6 40 0 18 8 629
2011-08-18 4 50 0 29 6 811
2011-08-19 1 27 0 14 4 955
2011-08-20 0 16 0 13 2 768
2011-08-21 1 20 2 16 2 731
2011-08-22 2 76 1 15 4 951
2011-08-23 1 73 1 20 7 172
2011-08-24 1 36 1 23 5 952
2011-08-25 6 106 1 16 7 246
2011-08-26 5 112 2 23 8 570
2011-08-27 2 52 0 19 5 138
2011-08-28 4 46 1 13 3 457
2011-08-29 3 83 0 18 4 851
2011-08-30 1 48 1 18 4 507
2011-08-31 5 67 1 48 3 880
Juillet 2011 57 1 156 10 30 112 626
Juin 2011 40 1 214 6 31 149 115
2011-06-01 1 32 0 29 5 456
2011-06-02 2 29 0 26 4 171
2011-06-03 1 35 0 19 4 043
2011-06-04 0 20 0 19 4 950
2011-06-05 0 28 2 15 4 322
2011-06-06 3 69 0 17 3 738
2011-06-07 2 48 0 31 4 173
2011-06-08 0 31 0 21 4 038
2011-06-09 0 22 0 28 4 286
2011-06-10 1 43 0 27 5 000
2011-06-11 1 31 0 29 4 509
2011-06-12 2 47 1 24 5 476
2011-06-13 0 28 0 21 5 276
2011-06-14 5 69 0 26 5 102
2011-06-15 0 58 0 17 4 739
2011-06-16 1 56 0 22 7 003
2011-06-17 0 46 0 19 4 024
2011-06-18 0 14 1 26 4 210
2011-06-19 0 27 0 23 4 877
2011-06-20 3 40 0 25 5 373
2011-06-21 2 59 0 22 5 456
2011-06-22 4 76 1 25 4 738
2011-06-23 1 47 0 24 5 119
2011-06-24 2 52 0 20 4 688
2011-06-25 0 18 0 18 4 641
2011-06-26 4 29 0 22 8 721
2011-06-27 1 50 1 21 4 259
2011-06-28 0 40 0 18 4 018
2011-06-29 1 31 0 19 7 555
2011-06-30 3 39 0 19 5 154
Mai 2011 64 1 997 8 39 181 997
Avril 2011 46 1 637 9 38 176 986
2011-04-01 3 85 0 24 5 196
2011-04-02 2 26 0 25 3 181
2011-04-03 1 47 0 22 3 986
2011-04-04 5 87 0 23 5 162
2011-04-05 3 126 0 26 5 929
2011-04-06 2 86 0 30 5 882
2011-04-07 2 66 0 28 5 722
2011-04-08 1 43 0 24 4 364
2011-04-09 0 20 0 30 5 658
2011-04-10 2 18 0 23 5 927
2011-04-11 1 70 0 29 6 508
2011-04-12 2 92 0 16 4 305
2011-04-13 0 60 0 19 3 888
2011-04-14 3 58 2 36 11 355
2011-04-15 1 48 0 26 8 294
2011-04-16 0 22 0 24 5 495
2011-04-17 0 22 0 27 5 056
2011-04-18 1 49 1 38 7 751
2011-04-19 0 41 0 32 8 124
2011-04-20 0 29 1 28 7 842
2011-04-21 2 75 2 29 7 444
2011-04-22 4 72 1 33 6 852
2011-04-23 2 53 0 26 6 996
2011-04-24 3 39 1 32 6 830
2011-04-25 1 54 0 27 5 518
2011-04-26 2 61 0 30 6 064
2011-04-27 1 30 0 22 4 274
2011-04-28 0 71 0 28 4 955
2011-04-29 0 49 0 28 4 772
2011-04-30 2 38 1 24 3 656
Mars 2011 54 2 388 6 31 211 307
2011-03-01 3 122 0 18 6 680
2011-03-02 2 125 0 22 7 771
2011-03-03 2 101 0 20 6 758
2011-03-04 1 42 0 17 4 167
2011-03-05 3 23 0 20 4 811
2011-03-06 1 22 0 18 6 699
2011-03-07 1 42 1 17 6 565
2011-03-08 1 37 0 15 7 116
2011-03-09 1 39 0 16 10 831
2011-03-10 3 77 0 15 19 804
2011-03-11 2 61 0 19 12 773
2011-03-12 4 51 1 16 5 555
2011-03-13 4 68 0 15 5 274
2011-03-14 2 115 0 16 5 003
2011-03-15 1 92 0 17 6 428
2011-03-16 3 212 1 21 9 712
2011-03-17 0 120 1 19 5 516
2011-03-18 0 109 0 19 3 950
2011-03-19 1 32 0 16 3 488
2011-03-20 0 56 0 20 3 576
2011-03-21 1 81 0 15 6 916
2011-03-22 1 58 0 30 6 314
2011-03-23 2 95 0 19 8 455
2011-03-24 3 147 0 19 6 592
2011-03-25 0 66 0 22 9 114
2011-03-26 1 15 0 21 4 424
2011-03-27 0 24 0 31 4 299
2011-03-28 3 77 0 28 5 137
2011-03-29 3 92 1 26 4 709
2011-03-30 4 104 1 25 5 221
2011-03-31 1 83 0 28 7 649
Février 2011 59 2 656 5 46 128 248
2011-02-01 3 136 0 46 5 654
2011-02-02 3 121 0 25 5 448
2011-02-03 2 68 0 30 4 573
2011-02-04 2 95 0 22 4 221
2011-02-05 4 54 0 26 3 574
2011-02-06 0 36 0 27 3 427
2011-02-07 5 100 0 30 4 483
2011-02-08 4 139 0 24 4 710
2011-02-09 1 103 0 23 5 418
2011-02-10 1 100 0 22 4 527
2011-02-11 3 116 2 41 4 732
2011-02-12 2 58 0 37 3 823
2011-02-13 1 74 0 36 4 349
2011-02-14 0 118 0 40 4 898
2011-02-15 3 100 0 38 4 914
2011-02-16 0 74 0 32 4 322
2011-02-17 3 82 0 29 4 503
2011-02-18 4 181 0 41 5 880
2011-02-19 0 34 0 22 3 355
2011-02-20 2 50 0 37 3 284
2011-02-21 1 151 1 35 5 505
2011-02-22 1 148 1 35 6 218
2011-02-23 5 132 0 43 5 855
2011-02-24 4 167 0 22 5 961
2011-02-25 0 48 0 19 3 745
2011-02-26 0 17 1 17 2 862
2011-02-27 1 19 0 19 2 743
2011-02-28 4 135 0 22 5 264
Janvier 2011 95 3 015 15 44 146 724
* 2010 615 23 079 70 91 1 409 620
Décembre 2010 54 2 635 5 43 199 984
Novembre 2010 59 2 475 6 49 127 779
2010-11-01 2 69 0 42 4 918
2010-11-02 4 147 0 40 5 882
2010-11-03 1 134 0 34 4 974
2010-11-04 4 98 0 28 4 484
2010-11-05 3 140 0 34 4 770
2010-11-06 1 30 0 25 2 633
2010-11-07 1 56 0 25 3 634
2010-11-08 1 50 0 37 4 890
2010-11-09 2 60 1 38 3 406
2010-11-10 3 87 0 41 4 949
2010-11-11 2 48 0 40 3 457
2010-11-12 1 54 0 28 3 255
2010-11-13 1 41 0 24 2 528
2010-11-14 2 94 0 37 4 624
2010-11-15 1 129 1 49 4 879
2010-11-16 1 82 0 33 4 288
2010-11-17 0 44 0 27 4 513
2010-11-18 1 65 0 22 3 684
2010-11-19 2 72 2 23 3 586
2010-11-20 4 70 0 24 3 798
2010-11-21 3 70 0 26 3 650
2010-11-22 3 81 0 30 4 196
2010-11-23 1 80 0 26 4 872
2010-11-24 3 110 1 27 4 984
2010-11-25 3 129 1 33 4 861
2010-11-26 1 85 0 32 4 900
2010-11-27 1 38 0 27 3 096
2010-11-28 0 46 0 34 3 836
2010-11-29 3 111 0 33 4 893
2010-11-30 4 155 0 33 5 339
Octobre 2010 56 2 811 15 58 134 942
Septembre 2010 53 1 528 8 29 95 249
Août 2010 32 1 287 6 33 89 617
2010-08-01 2 44 0 14 2 375
2010-08-02 1 72 0 19 3 526
2010-08-03 2 81 0 33 3 516
2010-08-04 0 87 0 21 2 742
2010-08-05 0 80 0 17 3 348
2010-08-06 2 149 0 20 3 946
2010-08-07 1 29 1 17 2 159
2010-08-08 1 27 0 16 2 369
2010-08-09 3 52 0 20 2 680
2010-08-10 0 52 0 15 3 070
2010-08-11 2 38 0 21 4 295
2010-08-12 1 36 0 18 2 513
2010-08-13 0 15 0 15 2 131
2010-08-14 0 10 1 8 6 123
2010-08-15 0 5 1 10 2 220
2010-08-16 2 21 0 12 2 503
2010-08-17 0 12 0 13 2 212
2010-08-18 0 17 0 12 2 490
2010-08-19 0 24 0 11 2 741
2010-08-20 2 30 0 22 3 123
2010-08-21 1 20 0 13 2 077
2010-08-22 2 35 0 12 1 743
2010-08-23 3 43 0 16 2 815
2010-08-24 1 41 0 17 3 088
2010-08-25 0 47 0 14 2 711
2010-08-26 1 61 0 16 2 920
2010-08-27 2 37 0 15 3 274
2010-08-28 0 20 0 9 1 779
2010-08-29 0 16 1 14 2 423
2010-08-30 1 32 0 17 3 130
2010-08-31 2 54 2 15 3 575
Juillet 2010 34 1 637 5 32 97 290
Juin 2010 46 2 137 3 28 109 648
2010-06-01 0 68 0 21 3 537
2010-06-02 1 57 0 17 3 123
2010-06-03 1 75 0 15 4 006
2010-06-04 0 85 0 20 3 645
2010-06-05 0 34 0 20 2 486
2010-06-06 3 30 0 17 2 856
2010-06-07 2 86 0 22 10 278
2010-06-08 0 64 0 18 5 044
2010-06-09 4 159 1 23 4 282
2010-06-10 2 122 0 19 3 974
2010-06-11 2 64 0 23 3 155
2010-06-12 1 20 0 16 3 002
2010-06-13 1 34 0 22 2 837
2010-06-14 1 34 0 25 3 405
2010-06-15 1 74 0 25 3 620
2010-06-16 0 98 0 28 4 159
2010-06-17 1 119 0 23 4 270
2010-06-18 3 81 0 19 3 422
2010-06-19 1 50 0 23 2 451
2010-06-20 1 22 0 19 2 286
2010-06-21 5 64 0 20 2 985
2010-06-22 2 99 1 23 3 730
2010-06-23 2 99 0 23 4 043
2010-06-24 4 128 1 18 4 041
2010-06-25 1 78 0 19 3 593
2010-06-26 0 6 0 15 2 050
2010-06-27 1 31 0 18 2 375
2010-06-28 4 99 0 21 3 892
2010-06-29 0 67 0 20 3 134
2010-06-30 2 90 0 23 3 967
Mai 2010 50 1 497 6 28 99 050
Avril 2010 45 1 888 3 26 102 219
2010-04-01 3 88 0 18 4 705
2010-04-02 1 97 1 17 5 127
2010-04-03 0 48 1 16 4 067
2010-04-04 0 25 0 17 3 540
2010-04-05 2 54 0 15 3 258
2010-04-06 0 69 0 19 3 639
2010-04-07 1 67 0 19 3 590
2010-04-08 5 109 0 25 4 043
2010-04-09 2 117 0 22 4 430
2010-04-10 0 44 0 17 2 821
2010-04-11 2 71 0 18 3 408
2010-04-12 2 101 0 21 4 509
2010-04-13 1 64 0 16 3 272
2010-04-14 2 56 0 19 3 587
2010-04-15 2 42 1 20 3 071
2010-04-16 2 48 0 18 3 184
2010-04-17 0 37 0 17 2 301
2010-04-18 0 20 0 17 2 342
2010-04-19 1 45 0 22 3 138
2010-04-20 2 70 0 18 3 550
2010-04-21 1 33 0 16 2 917
2010-04-22 2 70 0 26 3 255
2010-04-23 0 60 0 22 3 359
2010-04-24 4 34 0 16 2 265
2010-04-25 4 71 0 18 2 831
2010-04-26 1 105 0 23 3 707
2010-04-27 3 68 0 19 2 863
2010-04-28 0 43 0 20 3 119
2010-04-29 0 61 0 16 3 058
2010-04-30 2 71 0 15 3 263
Mars 2010 53 1 534 2 46 118 201
2010-03-01 2 57 0 30 3 808
2010-03-02 1 43 0 28 3 278
2010-03-03 1 50 0 25 3 337
2010-03-04 1 45 0 29 2 857
2010-03-05 2 45 0 23 2 770
2010-03-06 0 15 1 22 3 117
2010-03-07 3 37 1 27 3 446
2010-03-08 2 103 0 29 4 766
2010-03-09 4 45 0 30 3 965
2010-03-10 1 57 0 29 4 220
2010-03-11 1 71 0 36 4 632
2010-03-12 0 25 0 30 4 266
2010-03-13 4 54 0 32 4 286
2010-03-14 1 46 0 16 4 716
2010-03-15 2 68 0 35 4 863
2010-03-16 0 24 0 29 4 037
2010-03-17 3 52 0 26 4 054
2010-03-18 2 43 0 25 3 982
2010-03-19 0 43 0 46 4 350
2010-03-20 1 24 0 28 3 099
2010-03-21 4 43 0 27 3 413
2010-03-22 6 57 0 19 3 536
2010-03-23 2 73 0 16 3 468
2010-03-24 1 69 0 24 3 359
2010-03-25 1 37 0 19 3 480
2010-03-26 0 40 0 21 3 801
2010-03-27 0 21 0 16 2 808
2010-03-28 2 34 0 17 3 354
2010-03-29 3 83 0 15 4 329
2010-03-30 1 60 0 19 3 857
2010-03-31 2 70 0 21 4 947
Février 2010 65 1 574 4 91 117 274
2010-02-01 0 89 0 38 4 425
2010-02-02 2 76 0 35 3 733
2010-02-03 4 114 1 16 4 361
2010-02-04 0 62 0 42 4 425
2010-02-05 2 55 0 36 3 911
2010-02-06 1 39 0 14 3 117
2010-02-07 3 40 0 27 3 953
2010-02-08 2 89 0 35 4 078
2010-02-09 5 79 0 28 4 799
2010-02-10 4 55 1 27 4 888
2010-02-11 2 88 0 23 4 506
2010-02-12 4 56 0 26 4 178
2010-02-13 1 31 0 27 4 062
2010-02-14 1 36 0 30 4 023
2010-02-15 2 34 0 23 3 907
2010-02-16 4 76 1 18 4 688
2010-02-17 1 17 0 31 3 201
2010-02-18 5 61 1 26 4 183
2010-02-19 4 59 0 36 4 081
2010-02-20 1 40 0 24 3 219
2010-02-21 1 21 0 15 2 977
2010-02-22 1 54 0 28 3 653
2010-02-23 1 57 0 23 4 114
2010-02-24 4 87 0 24 4 415
2010-02-25 2 44 0 19 4 413
2010-02-26 3 57 0 49 4 280
2010-02-27 2 41 0 91 8 619
2010-02-28 3 17 0 36 3 065
Janvier 2010 68 2 076 7 43 118 367
* 2009 752 28 223 96 159 970 278
Décembre 2009 39 2 001 5 54 122 418
Novembre 2009 59 3 138 6 38 117 432
2009-11-01 7 196 0 17 6 083
2009-11-02 2 154 0 14 6 193
2009-11-03 2 113 0 15 3 925
2009-11-04 0 146 1 38 7 391
2009-11-05 3 99 1 16 3 845
2009-11-06 0 175 0 16 4 535
2009-11-07 3 92 0 15 2 601
2009-11-08 2 60 0 13 3 016
2009-11-09 2 122 0 12 3 868
2009-11-10 4 94 0 14 3 306
2009-11-11 3 51 1 18 2 852
2009-11-12 2 124 0 23 4 388
2009-11-13 2 103 0 25 3 769
2009-11-14 1 75 0 14 3 015
2009-11-15 2 111 0 14 3 780
2009-11-16 2 94 1 12 3 545
2009-11-17 3 109 0 20 4 594
2009-11-18 1 90 0 13 3 336
2009-11-19 0 74 0 12 2 917
2009-11-20 3 90 1 15 3 725
2009-11-21 0 42 0 13 2 561
2009-11-22 5 110 0 13 3 924
2009-11-23 1 130 0 13 4 408
2009-11-24 1 104 0 26 4 201
2009-11-25 0 121 0 26 4 382
2009-11-26 2 116 0 15 4 153
2009-11-27 1 136 0 18 3 894
2009-11-28 1 54 0 12 2 637
2009-11-29 3 69 1 15 2 874
2009-11-30 1 84 0 16 3 714
Octobre 2009 67 3 218 11 18 122 232
Septembre 2009 73 2 730 14 159 92 082
Août 2009 47 1 405 8 15 61 919
Juillet 2009 68 1 737 11 21 67 267
2009-07-01 4 69 0 14 2 659
2009-07-02 1 67 0 14 2 889
2009-07-03 3 120 2 13 3 026
2009-07-04 1 34 2 12 1 683
2009-07-05 3 64 0 12 1 809
2009-07-06 1 84 1 13 2 368
2009-07-07 1 48 0 11 1 662
2009-07-08 1 41 0 15 1 638
2009-07-09 1 44 1 10 1 732
2009-07-10 2 66 0 14 2 604
2009-07-11 0 31 0 21 1 808
2009-07-12 3 59 1 13 2 004
2009-07-13 1 32 0 18 2 007
2009-07-14 3 33 0 12 1 611
2009-07-15 0 53 0 13 1 922
2009-07-16 1 60 0 12 1 847
2009-07-17 4 83 1 11 2 287
2009-07-18 5 30 1 9 1 496
2009-07-19 3 31 0 8 1 392
2009-07-20 4 127 2 13 3 012
2009-07-21 1 71 0 10 2 792
2009-07-22 5 65 0 11 2 902
2009-07-23 3 53 0 11 2 311
2009-07-24 2 42 0 12 4 785
2009-07-25 1 24 0 10 1 411
2009-07-26 0 18 0 8 1 221
2009-07-27 7 76 0 11 2 378
2009-07-28 3 67 0 12 2 057
2009-07-29 1 39 0 13 1 662
2009-07-30 2 35 0 8 2 204
2009-07-31 1 71 0 9 2 088
Juin 2009 63 2 759 4 37 72 789
Mai 2009 46 2 166 6 16 66 386
Avril 2009 101 2 850 6 16 73 303
2009-04-01 3 166 1 14 3 669
2009-04-02 1 193 0 11 4 316
2009-04-03 1 125 1 11 2 873
2009-04-04 0 28 1 16 1 192
2009-04-05 0 23 0 9 1 660
2009-04-06 2 85 0 10 2 211
2009-04-07 5 106 0 14 2 655
2009-04-08 0 63 0 10 2 215
2009-04-09 2 119 0 14 2 827
2009-04-10 2 67 0 12 3 232
2009-04-11 0 27 0 9 1 101
2009-04-12 3 47 0 9 1 431
2009-04-13 3 98 1 9 2 738
2009-04-14 4 78 0 10 2 286
2009-04-15 3 108 0 10 2 870
2009-04-16 3 81 0 11 2 229
2009-04-17 0 92 0 12 2 534
2009-04-18 2 24 0 6 1 168
2009-04-19 2 68 0 10 1 951
2009-04-20 8 173 0 11 3 260
2009-04-21 4 205 0 15 3 878
2009-04-22 1 65 0 9 2 011
2009-04-23 0 115 0 11 2 136
2009-04-24 32 152 0 13 3 302
2009-04-25 2 37 1 12 1 453
2009-04-26 5 110 0 9 2 132
2009-04-27 0 112 0 12 2 669
2009-04-28 3 105 0 11 2 478
2009-04-29 4 103 1 12 2 554
2009-04-30 6 75 0 11 2 272
Mars 2009 80 3 538 7 17 83 610
2009-03-01 2 54 0 15 1 561
2009-03-02 8 178 2 16 4 208
2009-03-03 1 86 0 11 2 528
2009-03-04 1 39 0 15 1 730
2009-03-05 1 32 0 12 1 412
2009-03-06 0 34 0 10 2 207
2009-03-07 8 30 0 10 1 601
2009-03-08 2 122 0 17 2 214
2009-03-09 4 189 0 12 3 447
2009-03-10 2 93 0 12 2 867
2009-03-11 1 79 0 9 2 060
2009-03-12 1 101 0 9 2 336
2009-03-13 3 107 0 11 2 370
2009-03-14 0 47 0 10 1 454
2009-03-15 3 95 0 10 2 287
2009-03-16 2 149 0 15 3 335
2009-03-17 3 88 0 10 2 474
2009-03-18 1 117 2 11 2 993
2009-03-19 0 145 0 14 3 058
2009-03-20 0 159 0 14 3 545
2009-03-21 2 45 1 9 1 470
2009-03-22 2 143 0 11 2 597
2009-03-23 3 163 0 13 3 325
2009-03-24 6 212 0 11 3 583
2009-03-25 6 222 0 12 4 229
2009-03-26 7 166 0 14 3 647
2009-03-27 3 168 0 12 3 580
2009-03-28 0 67 1 8 1 864
2009-03-29 3 123 1 11 2 814
2009-03-30 5 184 0 15 3 914
2009-03-31 0 101 0 10 2 900
Février 2009 57 1 586 6 16 50 521
Janvier 2009 52 1 095 12 10 40 319
* 2008 334 4 655 56 26 234 055
Décembre 2008 36 663 7 12 28 104
2008-12-01 3 30 0 10 1 312
2008-12-02 0 30 0 7 1 279
2008-12-03 3 41 0 12 1 017
2008-12-04 2 33 0 7 1 133
2008-12-05 2 40 1 7 1 117
2008-12-06 0 7 0 5 831
2008-12-07 1 21 0 5 1 053
2008-12-08 1 30 0 8 1 116
2008-12-09 2 39 0 8 1 045
2008-12-10 0 13 0 6 555
2008-12-11 1 29 2 8 1 021
2008-12-12 0 29 1 9 1 230
2008-12-13 2 32 0 11 1 196
2008-12-14 3 17 1 8 973
2008-12-15 1 21 0 9 868
2008-12-16 3 51 1 9 1 403
2008-12-17 0 19 1 7 950
2008-12-18 1 7 0 10 889
2008-12-19 0 26 0 8 1 051
2008-12-20 2 19 0 8 964
2008-12-21 2 20 0 5 722
2008-12-22 0 10 0 5 689
2008-12-23 0 22 0 8 909
2008-12-24 0 8 0 4 427
2008-12-25 0 11 0 5 344
2008-12-26 2 17 0 6 566
2008-12-27 0 2 0 5 628
2008-12-28 1 8 0 5 684
2008-12-29 1 9 0 5 880
2008-12-30 1 8 0 5 575
2008-12-31 2 14 0 6 677
Novembre 2008 51 1 090 9 10 35 948
Octobre 2008 50 609 5 10 26 582
Septembre 2008 40 619 5 10 24 365
Août 2008 28 252 6 9 21 916
Juillet 2008 20 256 5 7 16 733
2008-07-01 1 11 0 5 499
2008-07-02 0 6 1 3 428
2008-07-03 1 15 0 7 504
2008-07-04 0 11 0 0 562
2008-07-05 0 3 1 5 416
2008-07-06 2 8 0 4 518
2008-07-07 0 6 0 5 766
2008-07-08 1 7 0 5 391
2008-07-09 2 18 0 5 586
2008-07-10 0 9 0 4 473
2008-07-11 0 5 0 0 440
2008-07-12 0 0 0 3 232
2008-07-13 0 2 0 2 270
2008-07-14 0 2 0 3 291
2008-07-15 2 10 0 4 395
2008-07-16 0 6 0 5 497
2008-07-17 1 12 0 4 772
2008-07-18 0 8 1 5 640
2008-07-19 1 6 0 4 328
2008-07-20 0 4 0 4 336
2008-07-21 1 12 1 5 586
2008-07-22 3 17 0 5 650
2008-07-23 0 9 0 4 678
2008-07-24 2 9 1 5 1 046
2008-07-25 0 2 0 0 497
2008-07-26 0 4 0 5 493
2008-07-27 1 10 0 6 1 290
2008-07-28 1 13 0 4 446
2008-07-29 0 11 0 3 514
2008-07-30 0 12 0 5 698
2008-07-31 1 8 0 0 491
Juin 2008 17 363 6 26 18 903
Mai 2008 17 180 2 10 13 320
Avril 2008 16 146 3 8 16 063
2008-04-01 1 11 0 4 553
2008-04-02 0 4 0 7 503
2008-04-03 2 14 1 4 1 518
2008-04-04 0 6 0 0 1 184
2008-04-05 0 2 0 3 955
2008-04-06 1 4 0 4 680
2008-04-07 1 6 0 4 582
2008-04-08 0 6 0 4 448
2008-04-09 0 1 0 3 419
2008-04-10 1 1 0 5 432
2008-04-11 0 1 0 3 780
2008-04-12 0 4 0 5 909
2008-04-13 0 4 0 3 540
2008-04-14 0 3 1 0 516
2008-04-15 0 1 0 0 343
2008-04-16 0 3 0 0 602
2008-04-17 0 0 0 8 283
2008-04-18 0 1 0 0 415
2008-04-19 0 1 1 4 429
2008-04-20 2 3 0 4 410
2008-04-21 3 15 0 4 521
2008-04-22 0 14 0 6 672
2008-04-23 1 12 0 4 399
2008-04-24 0 3 0 4 350
2008-04-25 0 2 0 4 190
2008-04-26 2 4 0 5 229
2008-04-27 0 2 0 4 308
2008-04-28 0 1 0 4 265
2008-04-29 0 4 0 4 250
2008-04-30 2 13 0 5 378
Mars 2008 18 158 1 9 12 835
2008-03-01 0 0 0 4 340
2008-03-02 2 5 0 0 302
2008-03-03 1 2 0 5 326
2008-03-04 0 2 0 5 294
2008-03-05 1 4 0 3 278
2008-03-06 2 16 0 5 449
2008-03-07 0 14 0 4 449
2008-03-08 1 4 0 0 354
2008-03-09 3 11 0 7 535
2008-03-10 0 2 0 0 368
2008-03-11 1 10 1 7 495
2008-03-12 0 6 0 5 471
2008-03-13 1 5 0 5 382
2008-03-14 0 10 0 7 498
2008-03-15 0 3 0 0 356
2008-03-16 0 4 0 4 344
2008-03-17 0 4 0 6 392
2008-03-18 0 0 0 0 304
2008-03-19 0 6 0 4 239
2008-03-20 0 4 0 3 192
2008-03-21 0 7 0 7 261
2008-03-22 0 0 0 4 319
2008-03-23 3 6 0 4 365
2008-03-24 1 10 0 6 495
2008-03-25 1 7 0 6 353
2008-03-26 0 3 0 3 375
2008-03-27 0 1 0 5 223
2008-03-28 0 2 0 6 979
2008-03-29 0 3 0 3 855
2008-03-30 0 0 0 7 632
2008-03-31 1 7 0 9 610
Février 2008 19 155 2 9 9 679
Janvier 2008 22 164 5 7 9 607
* 2007 276 2 246 55 9 102 999
Décembre 2007 21 167 5 8 17 081
2007-12-01 0 1 0 4 239
2007-12-02 0 2 0 4 264
2007-12-03 1 5 0 4 262
2007-12-04 0 1 0 4 266
2007-12-05 0 0 0 3 201
2007-12-06 0 2 0 4 226
2007-12-07 0 12 0 0 371
2007-12-08 1 3 0 4 451
2007-12-09 2 8 0 4 2 230
2007-12-10 2 13 1 5 405
2007-12-11 0 5 1 4 312
2007-12-12 1 10 0 4 317
2007-12-13 0 2 0 0 258
2007-12-14 1 7 0 4 254
2007-12-15 2 6 0 3 303
2007-12-16 0 4 0 3 248
2007-12-17 1 6 0 4 267
2007-12-18 0 1 0 0 233
2007-12-19 2 7 0 3 285
2007-12-20 0 4 1 0 262
2007-12-21 0 3 1 8 313
2007-12-22 4 12 0 5 568
2007-12-23 0 10 0 4 406
2007-12-24 1 7 1 3 4 210
2007-12-25 1 9 0 3 296
2007-12-26 0 11 0 5 383
2007-12-27 0 5 0 4 331
2007-12-28 1 6 0 0 326
2007-12-29 1 1 0 0 221
2007-12-30 0 1 0 2 2 196
2007-12-31 0 3 0 2 177
Novembre 2007 20 168 3 6 8 467
Octobre 2007 21 147 4 5 8 193
Septembre 2007 22 183 4 9 9 896
Août 2007 23 226 2 6 9 096
2007-08-01 1 11 0 0 281
2007-08-02 0 4 0 4 224
2007-08-03 2 13 1 0 357
2007-08-04 0 5 0 3 265
2007-08-05 0 0 0 1 129
2007-08-06 1 1 0 2 171
2007-08-07 1 2 0 0 211
2007-08-08 0 0 0 2 132
2007-08-09 1 3 0 2 133
2007-08-10 0 1 0 2 177
2007-08-11 0 0 0 2 104
2007-08-12 0 0 0 3 97
2007-08-13 0 3 0 3 220
2007-08-14 0 0 0 3 199
2007-08-15 0 0 0 0 163
2007-08-16 1 4 0 2 166
2007-08-17 0 6 0 5 274
2007-08-18 0 3 1 3 274
2007-08-19 1 4 0 3 258
2007-08-20 1 14 0 4 417
2007-08-21 2 9 0 3 352
2007-08-22 1 18 0 3 434
2007-08-23 1 12 0 4 412
2007-08-24 0 7 0 6 267
2007-08-25 0 7 0 5 265
2007-08-26 2 11 0 4 363
2007-08-27 1 27 0 6 720
2007-08-28 1 17 0 0 580
2007-08-29 2 9 0 0 492
2007-08-30 3 27 0 5 648
2007-08-31 1 8 0 5 311
Juillet 2007 18 127 1 4 10 165
2007-07-01 0 3 0 4 345
2007-07-02 0 3 0 4 509
2007-07-03 1 4 0 3 302
2007-07-04 1 6 0 0 431
2007-07-05 0 1 0 3 348
2007-07-06 0 6 0 3 356
2007-07-07 1 6 0 3 274
2007-07-08 0 4 0 4 314
2007-07-09 0 5 0 0 411
2007-07-10 0 2 0 4 320
2007-07-11 0 0 0 4 238
2007-07-12 2 2 0 3 264
2007-07-13 1 4 0 0 268
2007-07-14 2 3 0 2 203
2007-07-15 0 0 0 0 245
2007-07-16 2 10 1 4 539
2007-07-17 0 5 0 4 322
2007-07-18 0 5 0 4 436
2007-07-19 0 10 0 0 392
2007-07-20 1 4 0 3 235
2007-07-21 1 2 0 2 215
2007-07-22 0 2 0 0 250
2007-07-23 3 6 0 3 602
2007-07-24 1 8 0 3 356
2007-07-25 0 7 0 4 392
2007-07-26 0 2 0 3 281
2007-07-27 0 9 0 4 327
2007-07-28 0 0 0 3 246
2007-07-29 1 3 0 2 219
2007-07-30 1 2 0 4 276
2007-07-31 0 3 0 4 249
Juin 2007 25 309 2 6 13 196
Mai 2007 30 315 8 7 11 830
Avril 2007 44 428 13 9 13 382
2007-04-01 0 21 1 4 390
2007-04-02 4 25 0 6 522
2007-04-03 4 21 1 6 568
2007-04-04 3 41 1 8 1 017
2007-04-05 2 58 0 6 1 236
2007-04-06 1 29 0 6 771
2007-04-07 2 16 1 4 539
2007-04-08 0 6 0 3 243
2007-04-09 2 12 0 6 273
2007-04-10 0 6 0 6 265
2007-04-11 1 7 0 8 508
2007-04-12 1 4 1 8 599
2007-04-13 1 8 1 9 612
2007-04-14 1 2 0 4 309
2007-04-15 0 5 0 5 135
2007-04-16 0 11 0 4 467
2007-04-17 0 4 1 4 250
2007-04-18 1 8 0 7 274
2007-04-19 6 17 0 6 489
2007-04-20 1 23 1 5 463
2007-04-21 1 9 0 6 307
2007-04-22 1 11 2 4 277
2007-04-23 2 10 1 6 377
2007-04-24 1 22 0 5 524
2007-04-25 2 17 1 6 389
2007-04-26 3 12 0 6 502
2007-04-27 1 11 0 4 361
2007-04-28 2 3 0 3 172
2007-04-29 0 8 1 5 310
2007-04-30 1 1 0 5 233
Mars 2007 52 176 13 4 1 693
2007-03-08 5 5 1 2 0
2007-03-09 4 10 2 3 0
2007-03-10 0 0 0 1 0
2007-03-11 0 2 0 2 0
2007-03-12 1 5 0 2 0
2007-03-13 18 26 0 2 0
2007-03-14 4 7 0 3 0
2007-03-15 0 1 0 1 0
2007-03-16 0 1 0 2 0
2007-03-17 0 0 0 1 0
2007-03-18 0 0 2 2 0
2007-03-19 1 4 1 2 0
2007-03-20 3 10 2 2 0
2007-03-21 1 3 0 1 0
2007-03-22 1 13 1 3 0
2007-03-23 4 12 1 4 0
2007-03-24 1 2 1 1 0
2007-03-25 0 2 0 2 0
2007-03-26 4 12 1 2 223
2007-03-27 2 30 0 3 507
2007-03-28 0 13 0 3 452
2007-03-29 1 6 0 2 100
2007-03-30 0 3 0 3 131
2007-03-31 2 9 1 3 280